Time,TemperatureF,DewpointF,PressureIn,WindDirection,WindDirectionDegrees,WindSpeedMPH,WindSpeedGustMPH,Humidity,HourlyPrecipIn,Conditions,Clouds,dailyrainin,SolarRadiationWatts/m^2,SoftwareType,DateUTC
2013-01-04 00:00:00,26.0,24.0,30.39,NNW,327,0.0,0.0,92,0.00,,OVC,0.00,0.0,WeatherDisplay:10.37,2013-01-04 05:00:00,
2013-01-04 00:01:00,26.0,24.3,30.39,NNW,327,0.0,0.0,93,0.00,,OVC,0.00,0.0,WeatherDisplay:10.37,2013-01-04 05:01:00,
2013-01-04 00:03:00,26.1,24.4,30.39,NNW,327,0.0,0.0,93,0.00,,OVC,0.00,0.0,WeatherDisplay:10.37,2013-01-04 05:03:00,
2013-01-04 00:07:00,26.6,24.8,30.39,NNW,327,0.0,0.0,93,0.00,,OVC,0.00,0.0,WeatherDisplay:10.37,2013-01-04 05:07:00,
2013-01-04 00:08:00,26.6,24.8,30.39,NNW,327,0.0,0.0,93,0.00,,OVC,0.00,0.0,WeatherDisplay:10.37,2013-01-04 05:08:00,
2013-01-04 00:10:00,26.3,24.3,30.39,NNW,327,0.0,0.0,92,0.00,,OVC,0.00,0.0,WeatherDisplay:10.37,2013-01-04 05:10:00,
2013-01-04 00:11:00,26.3,24.3,30.39,NNW,327,0.0,0.0,92,0.00,,OVC,0.00,0.0,WeatherDisplay:10.37,2013-01-04 05:11:00,
2013-01-04 00:13:00,26.1,24.1,30.39,NNW,327,0.0,0.0,92,0.00,,OVC,0.00,0.0,WeatherDisplay:10.37,2013-01-04 05:13:00,
2013-01-04 00:15:00,26.1,24.4,30.39,NNW,327,0.0,0.0,93,0.00,,OVC,0.00,0.0,WeatherDisplay:10.37,2013-01-04 05:15:00,
2013-01-04 00:18:00,26.1,24.4,30.39,NNW,327,0.0,0.0,93,0.00,,OVC,0.00,0.0,WeatherDisplay:10.37,2013-01-04 05:18:00,
2013-01-04 00:19:00,26.3,24.6,30.39,NNW,327,0.0,0.0,93,0.00,,OVC,0.00,0.0,WeatherDisplay:10.37,2013-01-04 05:19:00,
2013-01-04 00:20:00,26.4,24.7,30.39,NNW,327,0.0,0.0,93,0.00,,OVC,0.00,0.0,WeatherDisplay:10.37,2013-01-04 05:20:00,
2013-01-04 00:22:00,26.6,24.8,30.39,NNW,327,0.0,0.0,93,0.00,,OVC,0.00,0.0,WeatherDisplay:10.37,2013-01-04 05:22:00,
2013-01-04 00:23:00,26.6,24.8,30.39,NNW,327,0.0,0.0,93,0.00,,OVC,0.00,0.0,WeatherDisplay:10.37,2013-01-04 05:23:00,
2013-01-04 00:25:00,26.6,24.8,30.39,NNW,327,0.0,0.0,93,0.00,,OVC,0.00,0.0,WeatherDisplay:10.37,2013-01-04 05:25:00,
2013-01-04 00:26:00,26.6,24.8,30.39,NNW,327,0.0,0.0,93,0.00,,OVC,0.00,0.0,WeatherDisplay:10.37,2013-01-04 05:26:00,
2013-01-04 00:28:00,26.6,24.8,30.39,NNW,327,0.0,0.0,93,0.00,,OVC,0.00,0.0,WeatherDisplay:10.37,2013-01-04 05:28:00,
2013-01-04 00:29:00,26.6,24.8,30.39,NNW,327,0.0,0.0,93,0.00,,OVC,0.00,0.0,WeatherDisplay:10.37,2013-01-04 05:29:00,
2013-01-04 00:30:00,26.4,24.7,30.39,NNW,327,0.0,0.0,93,0.00,,OVC,0.00,0.0,WeatherDisplay:10.37,2013-01-04 05:30:00,
2013-01-04 00:31:00,26.4,24.7,30.39,NNW,327,0.0,0.0,93,0.00,,OVC,0.00,0.0,WeatherDisplay:10.37,2013-01-04 05:31:00,
2013-01-04 00:33:00,26.1,24.1,30.38,NNW,327,0.0,0.0,92,0.00,,OVC,0.00,0.0,WeatherDisplay:10.37,2013-01-04 05:33:00,
2013-01-04 00:34:00,26.0,24.0,30.38,NNW,327,0.0,0.0,92,0.00,,OVC,0.00,0.0,WeatherDisplay:10.37,2013-01-04 05:34:00,
2013-01-04 00:37:00,25.4,23.4,30.38,NNW,327,0.0,0.0,92,0.00,,OVC,0.00,0.0,WeatherDisplay:10.37,2013-01-04 05:37:00,
2013-01-04 00:38:00,25.4,23.4,30.38,NNW,327,0.0,0.0,92,0.00,,OVC,0.00,0.0,WeatherDisplay:10.37,2013-01-04 05:38:00,
2013-01-04 00:39:00,25.4,23.4,30.38,NNW,327,0.0,0.0,92,0.00,,OVC,0.00,0.0,WeatherDisplay:10.37,2013-01-04 05:39:00,
2013-01-04 00:41:00,25.6,23.9,30.38,NNW,327,0.0,0.0,93,0.00,,OVC,0.00,0.0,WeatherDisplay:10.37,2013-01-04 05:41:00,
2013-01-04 00:44:00,25.6,23.9,30.38,NNW,327,0.0,0.0,93,0.00,,OVC,0.00,0.0,WeatherDisplay:10.37,2013-01-04 05:44:00,
2013-01-04 00:45:00,25.6,23.9,30.38,NNW,327,0.0,0.0,93,0.00,,OVC,0.00,0.0,WeatherDisplay:10.37,2013-01-04 05:45:00,
2013-01-04 00:46:00,25.6,23.9,30.38,NNW,327,0.0,0.0,93,0.00,,OVC,0.00,0.0,WeatherDisplay:10.37,2013-01-04 05:46:00,
2013-01-04 00:50:00,25.6,23.9,30.38,NNW,327,0.0,0.0,93,0.00,,OVC,0.00,0.0,WeatherDisplay:10.37,2013-01-04 05:50:00,
2013-01-04 00:51:00,25.6,23.9,30.38,NNW,327,0.0,0.0,93,0.00,,OVC,0.00,0.0,WeatherDisplay:10.37,2013-01-04 05:51:00,
2013-01-04 00:52:00,25.6,23.9,30.38,NNW,327,0.0,0.0,93,0.00,,OVC,0.00,0.0,WeatherDisplay:10.37,2013-01-04 05:52:00,
2013-01-04 00:56:00,25.4,23.7,30.38,NNW,327,0.0,0.0,93,0.00,,OVC,0.00,0.0,WeatherDisplay:10.37,2013-01-04 05:56:00,
2013-01-04 00:57:00,25.4,23.7,30.38,NNW,327,0.0,0.0,93,0.00,,OVC,0.00,0.0,WeatherDisplay:10.37,2013-01-04 05:57:00,
2013-01-04 00:58:00,25.4,23.7,30.38,NNW,327,0.0,0.0,93,0.00,,OVC,0.00,0.0,WeatherDisplay:10.37,2013-01-04 05:58:00,
2013-01-04 01:01:00,25.4,23.7,30.38,NNW,327,0.0,0.0,93,0.00,,OVC,0.00,0.0,WeatherDisplay:10.37,2013-01-04 06:01:00,
2013-01-04 01:03:00,25.6,23.9,30.38,NNW,327,0.0,0.0,93,0.00,,OVC,0.00,0.0,WeatherDisplay:10.37,2013-01-04 06:03:00,
2013-01-04 01:04:00,25.6,23.9,30.38,NNW,327,0.0,0.0,93,0.00,,OVC,0.00,0.0,WeatherDisplay:10.37,2013-01-04 06:04:00,
2013-01-04 01:06:00,25.6,23.9,30.38,NNW,327,0.0,0.0,93,0.00,,OVC,0.00,0.0,WeatherDisplay:10.37,2013-01-04 06:06:00,
2013-01-04 01:10:00,25.8,24.1,30.38,NNW,327,0.0,0.0,93,0.00,,OVC,0.00,0.0,WeatherDisplay:10.37,2013-01-04 06:10:00,
2013-01-04 01:11:00,25.8,24.1,30.38,NNW,327,0.0,0.0,93,0.00,,OVC,0.00,0.0,WeatherDisplay:10.37,2013-01-04 06:11:00,
2013-01-04 01:12:00,25.8,24.1,30.38,NNW,327,0.0,0.0,93,0.00,,OVC,0.00,0.0,WeatherDisplay:10.37,2013-01-04 06:12:00,
2013-01-04 01:16:00,25.8,24.1,30.38,NNW,327,0.0,0.0,93,0.00,,OVC,0.00,0.0,WeatherDisplay:10.37,2013-01-04 06:16:00,
2013-01-04 01:17:00,25.8,24.1,30.38,NNW,327,0.0,0.0,93,0.00,,OVC,0.00,0.0,WeatherDisplay:10.37,2013-01-04 06:17:00,
2013-01-04 01:21:00,25.7,24.0,30.38,NNW,327,0.0,0.0,93,0.00,,OVC,0.00,0.0,WeatherDisplay:10.37,2013-01-04 06:21:00,
2013-01-04 01:22:00,25.7,24.0,30.38,NNW,327,0.0,0.0,93,0.00,,OVC,0.00,0.0,WeatherDisplay:10.37,2013-01-04 06:22:00,
2013-01-04 01:23:00,25.6,23.9,30.38,NNW,327,0.0,0.0,93,0.00,,OVC,0.00,0.0,WeatherDisplay:10.37,2013-01-04 06:23:00,
2013-01-04 01:26:00,25.6,23.9,30.38,NNW,327,0.0,0.0,93,0.00,,OVC,0.00,0.0,WeatherDisplay:10.37,2013-01-04 06:26:00,
2013-01-04 01:29:00,25.4,23.7,30.38,NNW,327,0.0,0.0,93,0.00,,OVC,0.00,0.0,WeatherDisplay:10.37,2013-01-04 06:29:00,
2013-01-04 01:30:00,25.4,23.7,30.38,NNW,327,0.0,0.0,93,0.00,,OVC,0.00,0.0,WeatherDisplay:10.37,2013-01-04 06:30:00,
2013-01-04 01:34:00,25.1,23.4,30.39,NNW,327,0.0,0.0,93,0.00,,OVC,0.00,0.0,WeatherDisplay:10.37,2013-01-04 06:34:00,
2013-01-04 01:37:00,25.4,23.9,30.39,NNW,327,0.0,0.0,94,0.00,,OVC,0.00,0.0,WeatherDisplay:10.37,2013-01-04 06:37:00,
2013-01-04 01:39:00,25.4,23.9,30.39,NNW,327,0.0,0.0,94,0.00,,OVC,0.00,0.0,WeatherDisplay:10.37,2013-01-04 06:39:00,
2013-01-04 01:40:00,25.4,23.9,30.39,NNW,327,0.0,0.0,94,0.00,,OVC,0.00,0.0,WeatherDisplay:10.37,2013-01-04 06:40:00,
2013-01-04 01:44:00,25.4,23.9,30.39,NNW,327,0.0,0.0,94,0.00,,OVC,0.00,0.0,WeatherDisplay:10.37,2013-01-04 06:44:00,
2013-01-04 01:45:00,25.4,23.9,30.39,NNW,327,0.0,0.0,94,0.00,,OVC,0.00,0.0,WeatherDisplay:10.37,2013-01-04 06:45:00,
2013-01-04 01:50:00,25.1,23.4,30.40,NNW,327,0.0,0.0,93,0.00,,OVC,0.00,0.0,WeatherDisplay:10.37,2013-01-04 06:50:00,
2013-01-04 01:51:00,25.1,23.4,30.40,NNW,327,0.0,0.0,93,0.00,,OVC,0.00,0.0,WeatherDisplay:10.37,2013-01-04 06:51:00,
2013-01-04 01:54:00,25.0,23.3,30.40,NNW,327,0.0,0.0,93,0.00,,OVC,0.00,0.0,WeatherDisplay:10.37,2013-01-04 06:54:00,
2013-01-04 01:57:00,25.0,23.3,30.40,NNW,327,0.0,0.0,93,0.00,,OVC,0.00,0.0,WeatherDisplay:10.37,2013-01-04 06:57:00,
2013-01-04 01:58:00,25.0,23.3,30.40,NNW,327,0.0,0.0,93,0.00,,OVC,0.00,0.0,WeatherDisplay:10.37,2013-01-04 06:58:00,
2013-01-04 01:59:00,25.0,23.5,30.40,NNW,327,0.0,0.0,94,0.00,,OVC,0.00,0.0,WeatherDisplay:10.37,2013-01-04 06:59:00,
2013-01-04 02:03:00,25.4,23.9,30.40,NNW,327,0.0,0.0,94,0.00,,OVC,0.00,0.0,WeatherDisplay:10.37,2013-01-04 07:03:00,
2013-01-04 02:04:00,25.4,23.9,30.40,NNW,327,0.0,0.0,94,0.00,,OVC,0.00,0.0,WeatherDisplay:10.37,2013-01-04 07:04:00,
2013-01-04 02:06:00,25.6,24.1,30.40,NNW,327,0.0,0.0,94,0.00,,OVC,0.00,0.0,WeatherDisplay:10.37,2013-01-04 07:06:00,
2013-01-04 02:09:00,25.6,24.1,30.40,NNW,327,0.0,0.0,94,0.00,,OVC,0.00,0.0,WeatherDisplay:10.37,2013-01-04 07:09:00,
2013-01-04 02:11:00,25.4,23.9,30.40,NNW,327,0.0,0.0,94,0.00,,OVC,0.00,0.0,WeatherDisplay:10.37,2013-01-04 07:11:00,
2013-01-04 02:12:00,25.4,23.9,30.40,NNW,327,0.0,0.0,94,0.00,,OVC,0.00,0.0,WeatherDisplay:10.37,2013-01-04 07:12:00,
2013-01-04 02:16:00,25.3,23.6,30.40,NNW,327,0.0,0.0,93,0.00,,OVC,0.00,0.0,WeatherDisplay:10.37,2013-01-04 07:16:00,
2013-01-04 02:17:00,25.3,23.6,30.40,NNW,327,0.0,0.0,93,0.00,,OVC,0.00,0.0,WeatherDisplay:10.37,2013-01-04 07:17:00,
2013-01-04 02:21:00,25.0,23.3,30.41,NNW,327,0.0,0.0,93,0.00,,OVC,0.00,0.0,WeatherDisplay:10.37,2013-01-04 07:21:00,
2013-01-04 02:22:00,25.0,23.3,30.41,NNW,327,0.0,0.0,93,0.00,,OVC,0.00,0.0,WeatherDisplay:10.37,2013-01-04 07:22:00,
2013-01-04 02:23:00,25.0,23.3,30.41,NNW,327,0.0,0.0,93,0.00,,OVC,0.00,0.0,WeatherDisplay:10.37,2013-01-04 07:23:00,
2013-01-04 02:24:00,25.0,23.5,30.41,NNW,327,0.0,0.0,94,0.00,,OVC,0.00,0.0,WeatherDisplay:10.37,2013-01-04 07:24:00,
2013-01-04 02:27:00,24.8,23.3,30.41,NNW,327,0.0,0.0,94,0.00,,OVC,0.00,0.0,WeatherDisplay:10.37,2013-01-04 07:27:00,
2013-01-04 02:28:00,24.7,23.0,30.41,NNW,327,0.0,0.0,93,0.00,,OVC,0.00,0.0,WeatherDisplay:10.37,2013-01-04 07:28:00,
2013-01-04 02:30:00,24.7,22.9,30.41,NNW,327,0.0,0.0,93,0.00,,OVC,0.00,0.0,WeatherDisplay:10.37,2013-01-04 07:30:00,
2013-01-04 02:33:00,24.5,22.8,30.41,NNW,327,0.0,0.0,93,0.00,,OVC,0.00,0.0,WeatherDisplay:10.37,2013-01-04 07:33:00,
2013-01-04 02:34:00,24.5,23.0,30.41,NNW,327,0.0,0.0,94,0.00,,OVC,0.00,0.0,WeatherDisplay:10.37,2013-01-04 07:34:00,
2013-01-04 02:36:00,24.4,22.9,30.41,NNW,327,0.0,0.0,94,0.00,,OVC,0.00,0.0,WeatherDisplay:10.37,2013-01-04 07:36:00,
2013-01-04 02:37:00,24.4,22.7,30.41,NNW,327,0.0,0.0,93,0.00,,OVC,0.00,0.0,WeatherDisplay:10.37,2013-01-04 07:37:00,
2013-01-04 02:39:00,24.2,22.5,30.41,NNW,327,0.0,0.0,93,0.00,,OVC,0.00,0.0,WeatherDisplay:10.37,2013-01-04 07:39:00,
2013-01-04 02:41:00,24.2,22.5,30.41,NNW,327,0.0,0.0,93,0.00,,OVC,0.00,0.0,WeatherDisplay:10.37,2013-01-04 07:41:00,
2013-01-04 02:43:00,24.5,23.0,30.41,NNW,327,0.0,0.0,94,0.00,,OVC,0.00,0.0,WeatherDisplay:10.37,2013-01-04 07:43:00,
2013-01-04 02:45:00,24.5,23.0,30.41,NNW,327,0.0,0.0,94,0.00,,OVC,0.00,0.0,WeatherDisplay:10.37,2013-01-04 07:45:00,
2013-01-04 02:47:00,24.5,23.0,30.41,NNW,327,0.0,0.0,94,0.00,,OVC,0.00,0.0,WeatherDisplay:10.37,2013-01-04 07:47:00,
2013-01-04 02:50:00,24.4,22.9,30.41,NNW,327,0.0,0.0,94,0.00,,OVC,0.00,0.0,WeatherDisplay:10.37,2013-01-04 07:50:00,
2013-01-04 02:51:00,24.2,22.7,30.41,NNW,327,0.0,0.0,94,0.00,,OVC,0.00,0.0,WeatherDisplay:10.37,2013-01-04 07:51:00,
2013-01-04 02:52:00,24.2,22.5,30.41,NNW,327,0.0,0.0,93,0.00,,OVC,0.00,0.0,WeatherDisplay:10.37,2013-01-04 07:52:00,
2013-01-04 02:53:00,24.1,22.4,30.41,NNW,327,0.0,0.0,93,0.00,,OVC,0.00,0.0,WeatherDisplay:10.37,2013-01-04 07:53:00,
2013-01-04 02:56:00,23.8,22.1,30.41,NNW,327,0.0,0.0,93,0.00,,OVC,0.00,0.0,WeatherDisplay:10.37,2013-01-04 07:56:00,
2013-01-04 02:57:00,23.8,22.1,30.41,NNW,327,0.0,0.0,93,0.00,,OVC,0.00,0.0,WeatherDisplay:10.37,2013-01-04 07:57:00,
2013-01-04 03:00:00,23.4,21.7,30.41,NNW,327,0.0,0.0,93,0.00,,OVC,0.00,0.0,WeatherDisplay:10.37,2013-01-04 08:00:00,
2013-01-04 03:02:00,23.2,21.5,30.41,NNW,327,0.0,0.0,93,0.00,,OVC,0.00,0.0,WeatherDisplay:10.37,2013-01-04 08:02:00,
2013-01-04 03:03:00,23.2,21.5,30.41,NNW,327,0.0,0.0,93,0.00,,OVC,0.00,0.0,WeatherDisplay:10.37,2013-01-04 08:03:00,
2013-01-04 03:06:00,23.3,21.8,30.41,NNW,327,0.0,0.0,94,0.00,,OVC,0.00,0.0,WeatherDisplay:10.37,2013-01-04 08:06:00,
2013-01-04 03:08:00,23.9,22.4,30.41,NNW,327,0.0,0.0,94,0.00,,OVC,0.00,0.0,WeatherDisplay:10.37,2013-01-04 08:08:00,
2013-01-04 03:11:00,24.2,22.7,30.41,NNW,327,0.0,0.0,94,0.00,,OVC,0.00,0.0,WeatherDisplay:10.37,2013-01-04 08:11:00,
2013-01-04 03:12:00,24.2,22.7,30.41,NNW,327,0.0,0.0,94,0.00,,OVC,0.00,0.0,WeatherDisplay:10.37,2013-01-04 08:12:00,
2013-01-04 03:13:00,24.2,22.7,30.41,NNW,327,0.0,0.0,94,0.00,,OVC,0.00,0.0,WeatherDisplay:10.37,2013-01-04 08:13:00,
2013-01-04 03:14:00,24.1,22.6,30.41,NNW,327,0.0,0.0,94,0.00,,OVC,0.00,0.0,WeatherDisplay:10.37,2013-01-04 08:14:00,
2013-01-04 03:18:00,23.5,21.8,30.41,NNW,327,0.0,0.0,93,0.00,,OVC,0.00,0.0,WeatherDisplay:10.37,2013-01-04 08:18:00,
2013-01-04 03:19:00,23.2,21.5,30.41,NNW,327,0.0,0.0,93,0.00,,OVC,0.00,0.0,WeatherDisplay:10.37,2013-01-04 08:19:00,
2013-01-04 03:23:00,22.9,21.2,30.41,NNW,327,0.0,0.0,93,0.00,,OVC,0.00,0.0,WeatherDisplay:10.37,2013-01-04 08:23:00,
2013-01-04 03:24:00,23.0,21.3,30.41,NNW,327,0.0,0.0,93,0.00,,OVC,0.00,0.0,WeatherDisplay:10.37,2013-01-04 08:24:00,
2013-01-04 03:25:00,23.0,21.3,30.41,NNW,327,0.0,0.0,93,0.00,,OVC,0.00,0.0,WeatherDisplay:10.37,2013-01-04 08:25:00,
2013-01-04 03:29:00,24.1,22.6,30.41,NNW,327,0.0,0.0,94,0.00,,OVC,0.00,0.0,WeatherDisplay:10.37,2013-01-04 08:29:00,
2013-01-04 03:30:00,24.1,22.6,30.41,NNW,327,0.0,0.0,94,0.00,,OVC,0.00,0.0,WeatherDisplay:10.37,2013-01-04 08:30:00,
2013-01-04 03:32:00,24.4,22.9,30.39,NNW,327,0.0,0.0,94,0.00,,OVC,0.00,0.0,WeatherDisplay:10.37,2013-01-04 08:32:00,
2013-01-04 03:35:00,23.9,22.2,30.39,NNW,327,0.0,0.0,93,0.00,,OVC,0.00,0.0,WeatherDisplay:10.37,2013-01-04 08:35:00,
2013-01-04 03:37:00,23.5,21.8,30.39,NNW,327,0.0,0.0,93,0.00,,OVC,0.00,0.0,WeatherDisplay:10.37,2013-01-04 08:37:00,
2013-01-04 03:39:00,23.2,21.5,30.39,NNW,327,0.0,0.0,93,0.00,,OVC,0.00,0.0,WeatherDisplay:10.37,2013-01-04 08:39:00,
2013-01-04 03:40:00,23.0,21.3,30.39,NNW,327,0.0,0.0,93,0.00,,OVC,0.00,0.0,WeatherDisplay:10.37,2013-01-04 08:40:00,
2013-01-04 03:42:00,23.2,21.5,30.39,NNW,327,0.0,0.0,93,0.00,,OVC,0.00,0.0,WeatherDisplay:10.37,2013-01-04 08:42:00,
2013-01-04 03:44:00,23.5,22.0,30.39,NNW,327,0.0,0.0,94,0.00,,OVC,0.00,0.0,WeatherDisplay:10.37,2013-01-04 08:44:00,
2013-01-04 03:46:00,24.1,22.6,30.39,NNW,327,0.0,0.0,94,0.00,,OVC,0.00,0.0,WeatherDisplay:10.37,2013-01-04 08:46:00,
2013-01-04 03:48:00,24.5,23.3,30.40,NNW,327,0.0,0.0,95,0.00,,OVC,0.00,0.0,WeatherDisplay:10.37,2013-01-04 08:48:00,
2013-01-04 03:49:00,24.7,23.5,30.40,NNW,327,0.0,0.0,95,0.00,,OVC,0.00,0.0,WeatherDisplay:10.37,2013-01-04 08:49:00,
2013-01-04 03:51:00,24.7,23.5,30.40,NNW,327,0.0,0.0,95,0.00,,OVC,0.00,0.0,WeatherDisplay:10.37,2013-01-04 08:51:00,
2013-01-04 03:54:00,24.7,23.2,30.40,NNW,327,0.0,0.0,94,0.00,,OVC,0.00,0.0,WeatherDisplay:10.37,2013-01-04 08:54:00,
2013-01-04 03:56:00,24.8,23.3,30.40,NNW,327,0.0,0.0,94,0.00,,OVC,0.00,0.0,WeatherDisplay:10.37,2013-01-04 08:56:00,
2013-01-04 03:59:00,25.0,23.5,30.40,NNW,327,0.0,0.0,94,0.00,,OVC,0.00,0.0,WeatherDisplay:10.37,2013-01-04 08:59:00,
2013-01-04 04:01:00,24.8,23.3,30.40,NNW,327,0.0,0.0,94,0.00,,OVC,0.00,0.0,WeatherDisplay:10.37,2013-01-04 09:01:00,
2013-01-04 04:04:00,24.4,22.7,30.40,NNW,327,0.0,0.0,93,0.00,,OVC,0.00,0.0,WeatherDisplay:10.37,2013-01-04 09:04:00,
2013-01-04 04:06:00,24.4,22.7,30.40,NNW,327,0.0,0.0,93,0.00,,OVC,0.00,0.0,WeatherDisplay:10.37,2013-01-04 09:06:00,
2013-01-04 04:07:00,24.2,22.5,30.40,NNW,327,0.0,0.0,93,0.00,,OVC,0.00,0.0,WeatherDisplay:10.37,2013-01-04 09:07:00,
2013-01-04 04:09:00,24.2,22.5,30.40,NNW,327,0.0,0.0,93,0.00,,OVC,0.00,0.0,WeatherDisplay:10.37,2013-01-04 09:09:00,
2013-01-04 04:10:00,24.1,22.4,30.40,NNW,327,0.0,0.0,93,0.00,,OVC,0.00,0.0,WeatherDisplay:10.37,2013-01-04 09:10:00,
2013-01-04 04:12:00,23.8,21.8,30.40,NNW,327,0.0,0.0,92,0.00,,OVC,0.00,0.0,WeatherDisplay:10.37,2013-01-04 09:12:00,
2013-01-04 04:13:00,23.5,21.5,30.40,NNW,327,0.0,0.0,92,0.00,,OVC,0.00,0.0,WeatherDisplay:10.37,2013-01-04 09:13:00,
2013-01-04 04:14:00,23.2,21.2,30.40,NNW,327,0.0,0.0,92,0.00,,OVC,0.00,0.0,WeatherDisplay:10.37,2013-01-04 09:14:00,
2013-01-04 04:16:00,23.0,21.0,30.40,NNW,327,1.2,4.0,92,0.00,,OVC,0.00,0.0,WeatherDisplay:10.37,2013-01-04 09:16:00,
2013-01-04 04:18:00,23.0,21.3,30.40,NNW,327,3.6,4.0,93,0.00,,OVC,0.00,0.0,WeatherDisplay:10.37,2013-01-04 09:18:00,
2013-01-04 04:19:00,22.9,21.2,30.40,NNW,327,3.0,4.0,93,0.00,,OVC,0.00,0.0,WeatherDisplay:10.37,2013-01-04 09:19:00,
2013-01-04 04:22:00,23.2,21.5,30.40,NNW,327,2.8,3.5,93,0.00,,OVC,0.00,0.0,WeatherDisplay:10.37,2013-01-04 09:22:00,
2013-01-04 04:23:00,23.2,21.5,30.40,NNW,327,2.7,3.5,93,0.00,,OVC,0.00,0.0,WeatherDisplay:10.37,2013-01-04 09:23:00,
2013-01-04 04:24:00,23.2,21.5,30.40,NNW,327,2.4,3.5,93,0.00,,OVC,0.00,0.0,WeatherDisplay:10.37,2013-01-04 09:24:00,
2013-01-04 04:26:00,23.0,21.3,30.40,NNW,327,0.9,3.5,93,0.00,,OVC,0.00,0.0,WeatherDisplay:10.37,2013-01-04 09:26:00,
2013-01-04 04:28:00,23.0,21.3,30.40,NNW,327,0.0,0.0,93,0.00,,OVC,0.00,0.0,WeatherDisplay:10.37,2013-01-04 09:28:00,
2013-01-04 04:31:00,23.0,21.3,30.40,NNW,327,2.8,3.5,93,0.00,,OVC,0.00,0.0,WeatherDisplay:10.37,2013-01-04 09:31:00,
2013-01-04 04:33:00,22.9,21.2,30.41,NNW,327,2.2,3.5,93,0.00,,OVC,0.00,0.0,WeatherDisplay:10.37,2013-01-04 09:33:00,
2013-01-04 04:35:00,22.9,21.2,30.41,NNW,327,2.8,3.5,93,0.00,,OVC,0.00,0.0,WeatherDisplay:10.37,2013-01-04 09:35:00,
2013-01-04 04:36:00,22.9,21.2,30.41,NNW,327,2.5,3.5,93,0.00,,OVC,0.00,0.0,WeatherDisplay:10.37,2013-01-04 09:36:00,
2013-01-04 04:38:00,22.9,21.2,30.41,NNW,327,3.0,4.0,93,0.00,,OVC,0.00,0.0,WeatherDisplay:10.37,2013-01-04 09:38:00,
2013-01-04 04:39:00,22.9,21.2,30.41,NNW,327,3.5,4.0,93,0.00,,OVC,0.00,0.0,WeatherDisplay:10.37,2013-01-04 09:39:00,
2013-01-04 04:43:00,22.9,21.2,30.41,NNW,327,2.8,3.5,93,0.00,,OVC,0.00,0.0,WeatherDisplay:10.37,2013-01-04 09:43:00,
2013-01-04 04:44:00,23.0,21.3,30.41,NNW,327,3.2,3.5,93,0.00,,OVC,0.00,0.0,WeatherDisplay:10.37,2013-01-04 09:44:00,
2013-01-04 04:46:00,23.2,21.5,30.41,NNW,327,3.0,3.5,93,0.00,,OVC,0.00,0.0,WeatherDisplay:10.37,2013-01-04 09:46:00,
2013-01-04 04:50:00,23.2,21.5,30.40,NNW,327,0.0,0.0,93,0.00,,OVC,0.00,0.0,WeatherDisplay:10.37,2013-01-04 09:50:00,
2013-01-04 04:51:00,23.2,21.2,30.40,NNW,327,0.0,0.0,92,0.00,,OVC,0.00,0.0,WeatherDisplay:10.37,2013-01-04 09:51:00,
2013-01-04 04:56:00,22.7,20.7,30.40,NNW,327,2.4,3.5,92,0.00,,OVC,0.00,0.0,WeatherDisplay:10.37,2013-01-04 09:56:00,
2013-01-04 04:59:00,23.0,21.3,30.40,NNW,327,2.7,3.5,93,0.00,,OVC,0.00,0.0,WeatherDisplay:10.37,2013-01-04 09:59:00,
2013-01-04 05:01:00,23.2,21.5,30.40,NNW,327,2.7,3.5,93,0.00,,OVC,0.00,0.0,WeatherDisplay:10.37,2013-01-04 10:01:00,
2013-01-04 05:04:00,23.2,21.5,30.40,NNW,327,1.8,3.5,93,0.00,,OVC,0.00,0.0,WeatherDisplay:10.37,2013-01-04 10:04:00,
2013-01-04 05:06:00,23.0,21.3,30.40,NNW,327,0.0,0.0,93,0.00,,OVC,0.00,0.0,WeatherDisplay:10.37,2013-01-04 10:06:00,
2013-01-04 05:07:00,23.0,21.3,30.40,NNW,327,0.0,0.0,93,0.00,,OVC,0.00,0.0,WeatherDisplay:10.37,2013-01-04 10:07:00,
2013-01-04 05:09:00,22.9,21.2,30.40,NNW,327,0.0,0.0,93,0.00,,OVC,0.00,0.0,WeatherDisplay:10.37,2013-01-04 10:09:00,
2013-01-04 05:11:00,22.9,21.2,30.40,NNW,327,0.0,0.0,93,0.00,,OVC,0.00,0.0,WeatherDisplay:10.37,2013-01-04 10:11:00,
2013-01-04 05:13:00,23.0,21.3,30.40,NNW,327,0.0,0.0,93,0.00,,OVC,0.00,0.0,WeatherDisplay:10.37,2013-01-04 10:13:00,
2013-01-04 05:14:00,23.0,21.3,30.40,NNW,327,0.0,0.0,93,0.00,,OVC,0.00,0.0,WeatherDisplay:10.37,2013-01-04 10:14:00,
2013-01-04 05:17:00,22.5,20.5,30.40,NNW,327,0.0,0.0,92,0.00,,OVC,0.00,0.0,WeatherDisplay:10.37,2013-01-04 10:17:00,
2013-01-04 05:19:00,22.4,20.4,30.40,NNW,327,0.0,0.0,92,0.00,,OVC,0.00,0.0,WeatherDisplay:10.37,2013-01-04 10:19:00,
2013-01-04 05:20:00,22.4,20.7,30.40,NNW,327,0.0,0.0,93,0.00,,OVC,0.00,0.0,WeatherDisplay:10.37,2013-01-04 10:20:00,
2013-01-04 05:22:00,22.7,21.0,30.40,NNW,327,0.0,0.0,93,0.00,,OVC,0.00,0.0,WeatherDisplay:10.37,2013-01-04 10:22:00,
2013-01-04 05:23:00,22.9,21.2,30.40,NNW,327,0.0,0.0,93,0.00,,OVC,0.00,0.0,WeatherDisplay:10.37,2013-01-04 10:23:00,
2013-01-04 05:26:00,22.7,20.7,30.40,NNW,327,0.0,0.0,92,0.00,,OVC,0.00,0.0,WeatherDisplay:10.37,2013-01-04 10:26:00,
2013-01-04 05:27:00,22.5,20.5,30.40,NNW,327,0.0,0.0,92,0.00,,OVC,0.00,0.0,WeatherDisplay:10.37,2013-01-04 10:27:00,
2013-01-04 05:29:00,22.2,20.2,30.40,NNW,327,0.0,0.0,92,0.00,,OVC,0.00,0.0,WeatherDisplay:10.37,2013-01-04 10:29:00,
2013-01-04 05:31:00,22.2,20.2,30.40,NNW,327,0.0,0.0,92,0.00,,OVC,0.00,0.0,WeatherDisplay:10.37,2013-01-04 10:31:00,
2013-01-04 05:32:00,22.2,20.2,30.40,NNW,327,0.0,0.0,92,0.00,,OVC,0.00,0.0,WeatherDisplay:10.37,2013-01-04 10:32:00,
2013-01-04 05:33:00,22.2,20.2,30.40,NNW,327,0.0,0.0,92,0.00,,OVC,0.00,0.0,WeatherDisplay:10.37,2013-01-04 10:33:00,
2013-01-04 05:36:00,22.1,20.1,30.40,NNW,327,0.0,0.0,92,0.00,,OVC,0.00,0.0,WeatherDisplay:10.37,2013-01-04 10:36:00,
2013-01-04 05:38:00,22.2,20.5,30.40,NNW,327,0.0,0.0,93,0.00,,OVC,0.00,0.0,WeatherDisplay:10.37,2013-01-04 10:38:00,
2013-01-04 05:41:00,22.1,20.1,30.40,NNW,327,0.0,0.0,92,0.00,,OVC,0.00,0.0,WeatherDisplay:10.37,2013-01-04 10:41:00,
2013-01-04 05:42:00,21.9,19.9,30.40,NNW,327,0.0,0.0,92,0.00,,OVC,0.00,0.0,WeatherDisplay:10.37,2013-01-04 10:42:00,
2013-01-04 05:44:00,21.8,19.8,30.40,NNW,327,0.0,0.0,92,0.00,,OVC,0.00,0.0,WeatherDisplay:10.37,2013-01-04 10:44:00,
2013-01-04 05:47:00,21.6,19.6,30.40,NNW,327,0.0,0.0,92,0.00,,OVC,0.00,0.0,WeatherDisplay:10.37,2013-01-04 10:47:00,
2013-01-04 05:48:00,21.8,20.1,30.40,NNW,327,0.0,0.0,93,0.00,,OVC,0.00,0.0,WeatherDisplay:10.37,2013-01-04 10:48:00,
2013-01-04 05:50:00,22.7,21.0,30.40,NNW,327,0.0,0.0,93,0.00,,OVC,0.00,0.0,WeatherDisplay:10.37,2013-01-04 10:50:00,
2013-01-04 05:54:00,23.0,21.5,30.40,NNW,327,0.0,0.0,94,0.00,,OVC,0.00,0.0,WeatherDisplay:10.37,2013-01-04 10:54:00,
2013-01-04 05:55:00,23.0,21.3,30.40,NNW,327,0.0,0.0,93,0.00,,OVC,0.00,0.0,WeatherDisplay:10.37,2013-01-04 10:55:00,
2013-01-04 05:56:00,23.0,21.3,30.40,NNW,327,0.0,0.0,93,0.00,,OVC,0.00,0.0,WeatherDisplay:10.37,2013-01-04 10:56:00,
2013-01-04 05:59:00,23.2,21.5,30.40,NNW,327,0.0,0.0,93,0.00,,OVC,0.00,0.0,WeatherDisplay:10.37,2013-01-04 10:59:00,
2013-01-04 06:00:00,23.2,21.5,30.40,NNW,327,0.0,0.0,93,0.00,,OVC,0.00,0.0,WeatherDisplay:10.37,2013-01-04 11:00:00,
2013-01-04 06:02:00,23.2,21.5,30.40,NNW,327,0.0,0.0,93,0.00,,OVC,0.00,0.0,WeatherDisplay:10.37,2013-01-04 11:02:00,
2013-01-04 06:04:00,22.9,21.2,30.40,NNW,327,0.0,0.0,93,0.00,,OVC,0.00,0.0,WeatherDisplay:10.37,2013-01-04 11:04:00,
2013-01-04 06:07:00,22.4,20.4,30.40,NNW,327,2.2,3.5,92,0.00,,OVC,0.00,0.0,WeatherDisplay:10.37,2013-01-04 11:07:00,
2013-01-04 06:08:00,22.5,20.8,30.40,NNW,327,0.3,3.5,93,0.00,,OVC,0.00,0.0,WeatherDisplay:10.37,2013-01-04 11:08:00,
2013-01-04 06:09:00,22.5,20.8,30.40,NNW,327,0.7,3.5,93,0.00,,OVC,0.00,0.0,WeatherDisplay:10.37,2013-01-04 11:09:00,
2013-01-04 06:12:00,23.6,22.1,30.40,NNW,327,0.0,2.3,94,0.00,,OVC,0.00,0.0,WeatherDisplay:10.37,2013-01-04 11:12:00,
2013-01-04 06:14:00,24.1,22.4,30.40,NNW,327,0.6,4.0,93,0.00,,OVC,0.00,0.0,WeatherDisplay:10.37,2013-01-04 11:14:00,
2013-01-04 06:15:00,24.1,22.6,30.40,NNW,327,1.0,4.0,94,0.00,,OVC,0.00,0.0,WeatherDisplay:10.37,2013-01-04 11:15:00,
2013-01-04 06:16:00,24.4,22.7,30.40,NNW,327,2.2,3.5,93,0.00,,OVC,0.00,0.0,WeatherDisplay:10.37,2013-01-04 11:16:00,
2013-01-04 06:17:00,24.4,22.7,30.40,NNW,327,2.2,3.5,93,0.00,,OVC,0.00,0.0,WeatherDisplay:10.37,2013-01-04 11:17:00,
2013-01-04 06:20:00,24.2,22.2,30.41,NNW,327,0.4,3.5,92,0.00,,OVC,0.00,0.0,WeatherDisplay:10.37,2013-01-04 11:20:00,
2013-01-04 06:22:00,24.1,22.1,30.41,NNW,327,0.0,0.0,92,0.00,,OVC,0.00,0.0,WeatherDisplay:10.37,2013-01-04 11:22:00,
2013-01-04 06:23:00,24.1,22.1,30.41,NNW,327,0.0,0.0,92,0.00,,OVC,0.00,0.0,WeatherDisplay:10.37,2013-01-04 11:23:00,
2013-01-04 06:25:00,24.2,22.2,30.41,NNW,327,0.0,0.0,92,0.00,,OVC,0.00,0.0,WeatherDisplay:10.37,2013-01-04 11:25:00,
2013-01-04 06:28:00,24.8,23.1,30.41,NNW,327,0.0,0.0,93,0.00,,OVC,0.00,0.0,WeatherDisplay:10.37,2013-01-04 11:28:00,
2013-01-04 06:29:00,24.8,22.8,30.41,NNW,327,0.0,0.0,92,0.00,,OVC,0.00,0.0,WeatherDisplay:10.37,2013-01-04 11:29:00,
2013-01-04 06:30:00,24.8,22.3,30.41,NNW,327,0.0,0.0,90,0.00,,OVC,0.00,0.0,WeatherDisplay:10.37,2013-01-04 11:30:00,
2013-01-04 06:33:00,25.0,22.7,30.41,NNW,327,0.0,0.0,91,0.00,,OVC,0.00,0.0,WeatherDisplay:10.37,2013-01-04 11:33:00,
2013-01-04 06:34:00,25.1,22.6,30.41,NNW,327,0.0,0.0,90,0.00,,OVC,0.00,0.0,WeatherDisplay:10.37,2013-01-04 11:34:00,
2013-01-04 06:38:00,25.1,22.0,30.41,NNW,327,1.6,3.5,88,0.00,,OVC,0.00,0.0,WeatherDisplay:10.37,2013-01-04 11:38:00,
2013-01-04 06:39:00,25.0,21.9,30.41,NNW,327,1.6,2.3,88,0.00,,OVC,0.00,0.0,WeatherDisplay:10.37,2013-01-04 11:39:00,
2013-01-04 06:40:00,24.8,21.8,30.41,NNW,327,1.1,3.5,88,0.00,,OVC,0.00,0.0,WeatherDisplay:10.37,2013-01-04 11:40:00,
2013-01-04 06:44:00,24.5,21.5,30.41,NNW,327,0.0,0.0,88,0.00,,OVC,0.00,0.0,WeatherDisplay:10.37,2013-01-04 11:44:00,
2013-01-04 06:45:00,24.5,21.5,30.41,NNW,327,0.0,0.0,88,0.00,,OVC,0.00,0.0,WeatherDisplay:10.37,2013-01-04 11:45:00,
2013-01-04 06:50:00,24.2,21.2,30.42,NNW,327,0.0,0.0,88,0.00,,OVC,0.00,0.0,WeatherDisplay:10.37,2013-01-04 11:50:00,
2013-01-04 06:51:00,24.4,21.4,30.42,NNW,327,0.0,0.0,88,0.00,,OVC,0.00,0.0,WeatherDisplay:10.37,2013-01-04 11:51:00,
2013-01-04 06:54:00,24.7,21.7,30.42,NNW,327,0.0,0.0,88,0.00,,OVC,0.00,0.0,WeatherDisplay:10.37,2013-01-04 11:54:00,
2013-01-04 06:55:00,25.0,21.9,30.42,NNW,327,0.0,0.0,88,0.00,,OVC,0.00,0.0,WeatherDisplay:10.37,2013-01-04 11:55:00,
2013-01-04 06:56:00,25.0,21.9,30.42,NNW,327,0.0,0.0,88,0.00,,OVC,0.00,0.0,WeatherDisplay:10.37,2013-01-04 11:56:00,
2013-01-04 07:01:00,25.8,22.7,30.42,NNW,327,0.0,0.0,88,0.00,,OVC,0.00,0.0,WeatherDisplay:10.37,2013-01-04 12:01:00,
2013-01-04 07:03:00,26.0,22.7,30.42,NNW,327,0.0,0.0,87,0.00,OVC,,0.00,0.0,WeatherDisplay:10.37,2013-01-04 12:03:00,
2013-01-04 07:08:00,26.3,23.0,30.42,NNW,327,0.0,0.0,87,0.00,OVC,,0.00,0.0,WeatherDisplay:10.37,2013-01-04 12:08:00,
2013-01-04 07:09:00,26.0,22.4,30.42,NNW,327,0.0,0.0,86,0.00,OVC,,0.00,0.0,WeatherDisplay:10.37,2013-01-04 12:09:00,
2013-01-04 07:13:00,23.9,19.8,30.42,NNW,327,0.0,0.0,84,0.00,OVC,,0.00,0.0,WeatherDisplay:10.37,2013-01-04 12:13:00,
2013-01-04 07:14:00,23.8,19.7,30.42,NNW,327,0.0,0.0,84,0.00,OVC,,0.00,0.0,WeatherDisplay:10.37,2013-01-04 12:14:00,
2013-01-04 07:15:00,23.6,19.8,30.42,NNW,327,0.0,0.0,85,0.00,OVC,,0.00,0.0,WeatherDisplay:10.37,2013-01-04 12:15:00,
2013-01-04 07:19:00,23.8,20.5,30.42,NNW,327,0.2,3.0,87,0.00,OVC,,0.00,0.0,WeatherDisplay:10.37,2013-01-04 12:19:00,
2013-01-04 07:20:00,23.9,20.6,30.42,NNW,327,1.5,2.3,87,0.00,OVC,,0.00,0.0,WeatherDisplay:10.37,2013-01-04 12:20:00,
2013-01-04 07:24:00,23.9,20.3,30.42,NNW,327,0.0,0.0,86,0.00,OVC,,0.00,0.0,WeatherDisplay:10.37,2013-01-04 12:24:00,
2013-01-04 07:25:00,23.8,20.2,30.42,NNW,327,0.0,0.0,86,0.00,OVC,,0.00,0.0,WeatherDisplay:10.37,2013-01-04 12:25:00,
2013-01-04 07:27:00,23.2,19.6,30.42,NNW,327,1.1,2.0,86,0.00,OVC,,0.00,0.0,WeatherDisplay:10.37,2013-01-04 12:27:00,
2013-01-04 07:29:00,22.5,19.2,30.42,NNW,327,2.9,3.5,87,0.00,OVC,,0.00,0.0,WeatherDisplay:10.37,2013-01-04 12:29:00,
2013-01-04 07:31:00,22.5,19.5,30.42,NNW,327,2.9,3.5,88,0.00,OVC,,0.00,0.0,WeatherDisplay:10.37,2013-01-04 12:31:00,
2013-01-04 07:32:00,22.5,19.5,30.43,NNW,327,3.9,4.0,88,0.00,OVC,,0.00,5.0,WeatherDisplay:10.37,2013-01-04 12:32:00,
2013-01-04 07:35:00,22.7,19.7,30.43,NNW,327,3.6,4.0,88,0.00,OVC,,0.00,5.0,WeatherDisplay:10.37,2013-01-04 12:35:00,
2013-01-04 07:37:00,22.5,19.5,30.43,NNW,327,4.8,5.8,88,0.00,OVC,,0.00,7.0,WeatherDisplay:10.37,2013-01-04 12:37:00,
2013-01-04 07:38:00,22.4,19.4,30.43,NNW,327,4.0,4.6,88,0.00,OVC,,0.00,7.0,WeatherDisplay:10.37,2013-01-04 12:38:00,
2013-01-04 07:40:00,22.2,19.2,30.43,NNW,327,2.6,3.5,88,0.00,OVC,,0.00,9.0,WeatherDisplay:10.37,2013-01-04 12:40:00,
2013-01-04 07:41:00,22.2,19.5,30.43,NNW,327,2.1,3.5,89,0.00,OVC,,0.00,11.0,WeatherDisplay:10.37,2013-01-04 12:41:00,
2013-01-04 07:42:00,22.1,19.4,30.43,NNW,327,2.7,3.5,89,0.00,OVC,,0.00,14.0,WeatherDisplay:10.37,2013-01-04 12:42:00,
2013-01-04 07:43:00,22.1,19.4,30.43,NNW,327,2.7,3.5,89,0.00,OVC,,0.00,16.0,WeatherDisplay:10.37,2013-01-04 12:43:00,
2013-01-04 07:46:00,21.9,19.2,30.43,NNW,327,3.3,4.0,89,0.00,OVC,,0.00,21.0,WeatherDisplay:10.37,2013-01-04 12:46:00,
2013-01-04 07:47:00,21.9,19.2,30.44,NNW,327,3.4,4.0,89,0.00,OVC,,0.00,21.0,WeatherDisplay:10.37,2013-01-04 12:47:00,
2013-01-04 07:49:00,22.1,19.4,30.44,NNW,327,3.0,3.5,89,0.00,OVC,,0.00,25.0,WeatherDisplay:10.37,2013-01-04 12:49:00,
2013-01-04 07:52:00,21.9,19.2,30.44,NNW,327,3.7,4.0,89,0.00,OVC,,0.00,30.0,WeatherDisplay:10.37,2013-01-04 12:52:00,
2013-01-04 07:53:00,21.8,19.1,30.44,NW,325,4.1,4.6,89,0.00,OVC,,0.00,32.0,WeatherDisplay:10.37,2013-01-04 12:53:00,
2013-01-04 07:55:00,21.8,19.1,30.44,NW,322,4.5,5.0,89,0.00,OVC,,0.00,33.0,WeatherDisplay:10.37,2013-01-04 12:55:00,
2013-01-04 07:57:00,21.8,19.3,30.44,NW,322,4.5,4.6,90,0.00,OVC,,0.00,39.0,WeatherDisplay:10.37,2013-01-04 12:57:00,
2013-01-04 07:59:00,21.8,19.3,30.44,NW,321,4.2,4.6,90,0.00,OVC,,0.00,40.0,WeatherDisplay:10.37,2013-01-04 12:59:00,
2013-01-04 08:00:00,21.8,19.3,30.44,NW,320,4.2,5.0,90,0.00,OVC,,0.00,42.0,WeatherDisplay:10.37,2013-01-04 13:00:00,
2013-01-04 08:02:00,22.1,19.6,30.44,NW,313,5.2,6.0,90,0.00,OVC,,0.00,47.0,WeatherDisplay:10.37,2013-01-04 13:02:00,
2013-01-04 08:04:00,22.9,20.7,30.44,WNW,298,3.2,6.9,91,0.00,OVC,,0.00,53.0,WeatherDisplay:10.37,2013-01-04 13:04:00,
2013-01-04 08:05:00,22.9,20.7,30.44,WNW,298,2.1,6.9,91,0.00,OVC,,0.00,53.0,WeatherDisplay:10.37,2013-01-04 13:05:00,
2013-01-04 08:07:00,22.7,20.2,30.44,WNW,298,0.0,0.0,90,0.00,OVC,,0.00,58.0,WeatherDisplay:10.37,2013-01-04 13:07:00,
2013-01-04 08:10:00,22.7,20.2,30.44,WNW,298,0.0,1.0,90,0.00,OVC,,0.00,62.0,WeatherDisplay:10.37,2013-01-04 13:10:00,
2013-01-04 08:11:00,23.2,21.0,30.44,WNW,298,3.4,3.5,91,0.00,OVC,,0.00,65.0,WeatherDisplay:10.37,2013-01-04 13:11:00,
2013-01-04 08:13:00,23.5,21.3,30.44,WNW,298,0.0,2.3,91,0.00,OVC,,0.00,72.0,WeatherDisplay:10.37,2013-01-04 13:13:00,
2013-01-04 08:15:00,23.6,21.4,30.44,WNW,298,1.6,3.5,91,0.00,OVC,,0.00,74.0,WeatherDisplay:10.37,2013-01-04 13:15:00,
2013-01-04 08:18:00,24.2,22.0,30.44,WNW,298,0.0,0.0,91,0.00,OVC,,0.00,81.0,WeatherDisplay:10.37,2013-01-04 13:18:00,
2013-01-04 08:19:00,24.4,22.2,30.44,WNW,298,0.0,0.0,91,0.00,OVC,,0.00,84.0,WeatherDisplay:10.37,2013-01-04 13:19:00,
2013-01-04 08:21:00,24.7,22.4,30.44,WNW,298,2.5,3.5,91,0.00,OVC,,0.00,88.0,WeatherDisplay:10.37,2013-01-04 13:21:00,
2013-01-04 08:23:00,25.0,22.5,30.44,WNW,298,3.0,3.5,90,0.00,OVC,,0.00,93.0,WeatherDisplay:10.37,2013-01-04 13:23:00,
2013-01-04 08:25:00,25.3,22.8,30.44,WNW,298,1.8,3.5,90,0.00,OVC,,0.00,104.0,WeatherDisplay:10.37,2013-01-04 13:25:00,
2013-01-04 08:26:00,25.4,22.9,30.44,WNW,298,1.8,3.5,90,0.00,OVC,,0.00,107.0,WeatherDisplay:10.37,2013-01-04 13:26:00,
2013-01-04 08:29:00,25.7,22.9,30.44,WNW,298,3.0,4.0,89,0.00,OVC,,0.00,118.0,WeatherDisplay:10.37,2013-01-04 13:29:00,
2013-01-04 08:31:00,25.8,23.0,30.44,WNW,298,3.4,4.0,89,0.00,OVC,,0.00,123.0,WeatherDisplay:10.37,2013-01-04 13:31:00,
2013-01-04 08:33:00,25.7,22.6,30.44,WNW,298,3.4,3.5,88,0.00,OVC,,0.00,128.0,WeatherDisplay:10.37,2013-01-04 13:33:00,
2013-01-04 08:34:00,25.7,22.6,30.44,WNW,298,3.1,3.5,88,0.00,OVC,,0.00,130.0,WeatherDisplay:10.37,2013-01-04 13:34:00,
2013-01-04 08:37:00,25.8,22.7,30.44,WNW,298,2.8,3.5,88,0.00,OVC,,0.00,137.0,WeatherDisplay:10.37,2013-01-04 13:37:00,
2013-01-04 08:38:00,26.0,22.9,30.44,WNW,298,3.7,4.6,88,0.00,OVC,,0.00,142.0,WeatherDisplay:10.37,2013-01-04 13:38:00,
2013-01-04 08:39:00,26.0,22.9,30.44,WNW,298,2.9,4.6,88,0.00,OVC,,0.00,142.0,WeatherDisplay:10.37,2013-01-04 13:39:00,
2013-01-04 08:42:00,26.3,23.2,30.44,WNW,298,4.4,5.8,88,0.00,OVC,,0.00,153.0,WeatherDisplay:10.37,2013-01-04 13:42:00,
2013-01-04 08:44:00,26.4,23.3,30.44,WNW,298,3.0,3.5,88,0.00,OVC,,0.00,153.0,WeatherDisplay:10.37,2013-01-04 13:44:00,
2013-01-04 08:45:00,26.4,23.3,30.44,WNW,298,3.0,6.0,88,0.00,OVC,OVC,0.00,155.0,WeatherDisplay:10.37,2013-01-04 13:45:00,
2013-01-04 08:49:00,26.7,23.4,30.44,WNW,298,4.7,6.0,87,0.00,OVC,,0.00,165.0,WeatherDisplay:10.37,2013-01-04 13:49:00,
2013-01-04 08:51:00,26.9,23.5,30.44,WNW,298,5.4,6.0,87,0.00,OVC,,0.00,169.0,WeatherDisplay:10.37,2013-01-04 13:51:00,
2013-01-04 08:52:00,27.0,23.6,30.44,WNW,298,5.7,6.0,87,0.00,OVC,,0.00,171.0,WeatherDisplay:10.37,2013-01-04 13:52:00,
2013-01-04 08:56:00,27.5,23.9,30.44,WNW,298,5.2,6.0,86,0.00,OVC,,0.00,181.0,WeatherDisplay:10.37,2013-01-04 13:56:00,
2013-01-04 08:57:00,27.6,24.0,30.44,WNW,298,4.7,5.8,86,0.00,OVC,,0.00,185.0,WeatherDisplay:10.37,2013-01-04 13:57:00,
2013-01-04 08:58:00,27.8,24.2,30.44,WNW,298,4.7,5.8,86,0.00,OVC,,0.00,186.0,WeatherDisplay:10.37,2013-01-04 13:58:00,
2013-01-04 09:02:00,28.4,24.5,30.44,WNW,298,2.3,3.5,85,0.00,OVC,,0.00,195.0,WeatherDisplay:10.37,2013-01-04 14:02:00,
2013-01-04 09:04:00,28.5,24.6,30.44,WNW,298,0.0,3.5,85,0.00,OVC,,0.00,197.0,WeatherDisplay:10.37,2013-01-04 14:04:00,
2013-01-04 09:05:00,28.7,24.5,30.44,WNW,298,0.0,0.0,84,0.00,OVC,,0.00,199.0,WeatherDisplay:10.37,2013-01-04 14:05:00,
2013-01-04 09:08:00,29.4,25.2,30.44,WNW,298,0.0,0.0,84,0.00,OVC,,0.00,216.0,WeatherDisplay:10.37,2013-01-04 14:08:00,
2013-01-04 09:10:00,29.5,25.3,30.44,WNW,298,0.0,0.0,84,0.00,OVC,,0.00,220.0,WeatherDisplay:10.37,2013-01-04 14:10:00,
2013-01-04 09:11:00,29.7,25.5,30.44,WNW,298,0.0,0.0,84,0.00,OVC,,0.00,227.0,WeatherDisplay:10.37,2013-01-04 14:11:00,
2013-01-04 09:12:00,29.8,25.6,30.44,WNW,298,0.0,0.0,84,0.00,OVC,,0.00,230.0,WeatherDisplay:10.37,2013-01-04 14:12:00,
2013-01-04 09:15:00,30.2,25.9,30.44,WNW,298,0.0,3.0,84,0.00,OVC,OVC,0.00,258.0,WeatherDisplay:10.37,2013-01-04 14:15:00,
2013-01-04 09:16:00,30.6,26.3,30.44,WNW,298,0.0,0.0,84,0.00,OVC,,0.00,267.0,WeatherDisplay:10.37,2013-01-04 14:16:00,
2013-01-04 09:17:00,30.7,26.4,30.44,WNW,298,0.0,0.0,84,0.00,OVC,,0.00,265.0,WeatherDisplay:10.37,2013-01-04 14:17:00,
2013-01-04 09:18:00,30.7,26.4,30.44,WNW,298,0.0,0.0,84,0.00,OVC,,0.00,267.0,WeatherDisplay:10.37,2013-01-04 14:18:00,
2013-01-04 09:22:00,30.7,25.6,30.44,WNW,298,0.0,0.0,81,0.00,OVC,,0.00,264.0,WeatherDisplay:10.37,2013-01-04 14:22:00,
2013-01-04 09:23:00,30.7,25.6,30.44,WNW,298,0.0,0.0,81,0.00,OVC,,0.00,265.0,WeatherDisplay:10.37,2013-01-04 14:23:00,
2013-01-04 09:25:00,30.9,25.8,30.44,WNW,298,0.7,3.5,81,0.00,OVC,,0.00,269.0,WeatherDisplay:10.37,2013-01-04 14:25:00,
2013-01-04 09:28:00,30.9,25.8,30.44,WNW,298,1.7,3.5,81,0.00,OVC,,0.00,276.0,WeatherDisplay:10.37,2013-01-04 14:28:00,
2013-01-04 09:30:00,31.0,25.6,30.44,WNW,298,0.0,4.0,80,0.00,OVC,OVC,0.00,279.0,WeatherDisplay:10.37,2013-01-04 14:30:00,
2013-01-04 09:32:00,31.3,25.5,30.44,WNW,298,0.5,2.3,79,0.00,OVC,,0.00,288.0,WeatherDisplay:10.37,2013-01-04 14:32:00,
2013-01-04 09:33:00,31.6,25.8,30.45,WNW,298,0.0,0.0,79,0.00,OVC,,0.00,292.0,WeatherDisplay:10.37,2013-01-04 14:33:00,
2013-01-04 09:35:00,31.9,25.8,30.45,WNW,298,1.2,2.3,78,0.00,OVC,,0.00,297.0,WeatherDisplay:10.37,2013-01-04 14:35:00,
2013-01-04 09:37:00,32.2,25.8,30.45,WNW,298,0.0,0.0,77,0.00,OVC,,0.00,299.0,WeatherDisplay:10.37,2013-01-04 14:37:00,
2013-01-04 09:40:00,32.5,26.1,30.45,WNW,298,0.0,0.0,77,0.00,OVC,,0.00,306.0,WeatherDisplay:10.37,2013-01-04 14:40:00,
2013-01-04 09:42:00,32.7,26.3,30.45,WNW,298,0.0,0.0,77,0.00,OVC,,0.00,313.0,WeatherDisplay:10.37,2013-01-04 14:42:00,
2013-01-04 09:45:00,32.9,26.2,30.45,WNW,298,2.9,3.5,76,0.00,OVC,,0.00,322.0,WeatherDisplay:10.37,2013-01-04 14:45:00,
2013-01-04 09:46:00,32.9,26.2,30.45,WNW,298,2.9,3.5,76,0.00,OVC,,0.00,323.0,WeatherDisplay:10.37,2013-01-04 14:46:00,
2013-01-04 09:47:00,33.1,26.0,30.45,WNW,298,0.8,3.5,75,0.00,OVC,,0.00,325.0,WeatherDisplay:10.37,2013-01-04 14:47:00,
2013-01-04 09:50:00,33.2,26.1,30.47,WNW,298,5.3,6.9,75,0.00,OVC,,0.00,334.0,WeatherDisplay:10.37,2013-01-04 14:50:00,
2013-01-04 09:54:00,33.4,25.7,30.47,WNW,298,5.1,5.8,73,0.00,OVC,,0.00,343.0,WeatherDisplay:10.37,2013-01-04 14:54:00,
2013-01-04 09:55:00,33.4,25.3,30.47,WNW,298,3.7,5.8,72,0.00,OVC,,0.00,346.0,WeatherDisplay:10.37,2013-01-04 14:55:00,
2013-01-04 09:56:00,33.4,25.3,30.47,WNW,298,3.3,5.8,72,0.00,OVC,,0.00,346.0,WeatherDisplay:10.37,2013-01-04 14:56:00,
2013-01-04 10:00:00,33.7,25.0,30.47,WNW,298,3.0,8.0,70,0.00,OVC,OVC,0.00,355.0,WeatherDisplay:10.37,2013-01-04 15:00:00,
2013-01-04 10:02:00,34.0,24.9,30.46,WNW,298,5.0,5.0,69,0.00,OVC,,0.00,360.0,WeatherDisplay:10.37,2013-01-04 15:02:00,
2013-01-04 10:05:00,34.3,24.5,30.46,WNW,297,6.5,10.4,67,0.00,OVC,,0.00,367.0,WeatherDisplay:10.37,2013-01-04 15:05:00,
2013-01-04 10:06:00,34.3,24.5,30.46,WNW,297,6.2,9.2,67,0.00,OVC,,0.00,367.0,WeatherDisplay:10.37,2013-01-04 15:06:00,
2013-01-04 10:07:00,34.4,24.6,30.46,WNW,297,3.4,9.2,67,0.00,OVC,,0.00,367.0,WeatherDisplay:10.37,2013-01-04 15:07:00,
2013-01-04 10:08:00,34.6,24.8,30.46,WNW,298,5.6,9.2,67,0.00,OVC,,0.00,371.0,WeatherDisplay:10.37,2013-01-04 15:08:00,
2013-01-04 10:12:00,34.9,25.0,30.46,WNW,298,5.7,5.7,67,0.00,OVC,,0.00,378.0,WeatherDisplay:10.37,2013-01-04 15:12:00,
2013-01-04 10:13:00,34.9,25.0,30.46,WNW,298,5.0,6.9,67,0.00,OVC,,0.00,383.0,WeatherDisplay:10.37,2013-01-04 15:13:00,
2013-01-04 10:14:00,35.0,24.8,30.46,WNW,296,5.5,9.2,66,0.00,OVC,,0.00,385.0,WeatherDisplay:10.37,2013-01-04 15:14:00,
2013-01-04 10:17:00,35.2,24.6,30.46,WNW,296,6.3,10.4,65,0.00,OVC,,0.00,388.0,WeatherDisplay:10.37,2013-01-04 15:17:00,
2013-01-04 10:19:00,35.3,24.7,30.47,WNW,296,3.1,4.6,65,0.00,OVC,,0.00,392.0,WeatherDisplay:10.37,2013-01-04 15:19:00,
2013-01-04 10:20:00,35.5,24.5,30.47,WNW,297,5.2,8.0,64,0.00,OVC,,0.00,394.0,WeatherDisplay:10.37,2013-01-04 15:20:00,
2013-01-04 10:22:00,35.6,24.2,30.47,WNW,302,6.4,8.1,63,0.00,OVC,,0.00,399.0,WeatherDisplay:10.37,2013-01-04 15:22:00,
2013-01-04 10:24:00,35.8,24.0,30.47,WNW,302,3.4,5.8,62,0.00,OVC,,0.00,404.0,WeatherDisplay:10.37,2013-01-04 15:24:00,
2013-01-04 10:25:00,35.9,24.1,30.47,WNW,302,2.0,5.8,62,0.00,OVC,,0.00,404.0,WeatherDisplay:10.37,2013-01-04 15:25:00,
2013-01-04 10:28:00,36.2,24.4,30.47,WNW,303,6.1,9.2,62,0.00,OVC,,0.00,410.0,WeatherDisplay:10.37,2013-01-04 15:28:00,
2013-01-04 10:29:00,36.3,24.5,30.47,WNW,302,5.0,9.2,62,0.00,OVC,,0.00,410.0,WeatherDisplay:10.37,2013-01-04 15:29:00,
2013-01-04 10:30:00,36.3,24.5,30.47,WNW,302,5.6,6.9,62,0.00,OVC,,0.00,410.0,WeatherDisplay:10.37,2013-01-04 15:30:00,
2013-01-04 10:33:00,36.5,24.7,30.46,WNW,302,2.8,5.0,62,0.00,OVC,,0.00,418.0,WeatherDisplay:10.37,2013-01-04 15:33:00,
2013-01-04 10:35:00,36.8,24.2,30.46,WNW,302,4.8,6.9,60,0.00,OVC,,0.00,420.0,WeatherDisplay:10.37,2013-01-04 15:35:00,
2013-01-04 10:38:00,37.0,24.8,30.46,WNW,294,5.6,10.4,61,0.00,OVC,,0.00,429.0,WeatherDisplay:10.37,2013-01-04 15:38:00,
2013-01-04 10:39:00,37.0,24.4,30.46,WNW,294,5.6,9.2,60,0.00,OVC,,0.00,429.0,WeatherDisplay:10.37,2013-01-04 15:39:00,
2013-01-04 10:41:00,37.0,23.6,30.46,WNW,294,5.2,5.2,58,0.00,OVC,,0.00,431.0,WeatherDisplay:10.37,2013-01-04 15:41:00,
2013-01-04 10:43:00,37.2,23.8,30.46,WNW,295,5.0,9.0,58,0.00,OVC,,0.00,432.0,WeatherDisplay:10.37,2013-01-04 15:43:00,
2013-01-04 10:46:00,37.3,23.9,30.46,WNW,285,9.5,11.5,58,0.00,OVC,,0.00,439.0,WeatherDisplay:10.37,2013-01-04 15:46:00,
2013-01-04 10:47:00,37.3,23.9,30.46,West,281,10.6,11.5,58,0.00,OVC,,0.00,439.0,WeatherDisplay:10.37,2013-01-04 15:47:00,
2013-01-04 10:48:00,37.3,23.9,30.46,West,271,11.3,13.0,58,0.00,OVC,,0.00,441.0,WeatherDisplay:10.37,2013-01-04 15:48:00,
2013-01-04 10:51:00,37.5,23.6,30.46,West,269,10.7,13.8,57,0.00,OVC,,0.00,446.0,WeatherDisplay:10.37,2013-01-04 15:51:00,
2013-01-04 10:53:00,37.5,23.6,30.46,West,265,8.6,12.7,57,0.00,OVC,,0.00,446.0,WeatherDisplay:10.37,2013-01-04 15:53:00,
2013-01-04 10:55:00,37.6,23.3,30.46,West,263,10.7,13.0,56,0.00,OVC,,0.00,450.0,WeatherDisplay:10.37,2013-01-04 15:55:00,
2013-01-04 10:58:00,37.8,23.5,30.46,West,265,7.4,11.5,56,0.00,OVC,,0.00,455.0,WeatherDisplay:10.37,2013-01-04 15:58:00,
2013-01-04 10:59:00,37.9,23.2,30.46,West,265,5.8,10.4,55,0.00,OVC,,0.00,454.0,WeatherDisplay:10.37,2013-01-04 15:59:00,
2013-01-04 11:03:00,38.2,24.3,30.45,West,268,8.5,13.0,57,0.00,OVC,,0.00,462.0,WeatherDisplay:10.37,2013-01-04 16:03:00,
2013-01-04 11:04:00,38.2,23.0,30.45,West,272,7.2,12.7,54,0.00,OVC,,0.00,464.0,WeatherDisplay:10.37,2013-01-04 16:04:00,
2013-01-04 11:05:00,38.3,23.1,30.45,West,273,7.2,11.5,54,0.00,OVC,,0.00,466.0,WeatherDisplay:10.37,2013-01-04 16:05:00,
2013-01-04 11:08:00,38.5,22.8,30.45,WNW,287,9.0,11.5,53,0.00,OVC,,0.00,469.0,WeatherDisplay:10.37,2013-01-04 16:08:00,
2013-01-04 11:09:00,38.5,22.8,30.45,WNW,288,9.6,12.7,53,0.00,OVC,,0.00,469.0,WeatherDisplay:10.37,2013-01-04 16:09:00,
2013-01-04 11:13:00,38.5,22.4,30.45,West,278,10.5,12.7,52,0.00,OVC,,0.00,475.0,WeatherDisplay:10.37,2013-01-04 16:13:00,
2013-01-04 11:14:00,38.5,22.4,30.45,WNW,284,9.8,13.8,52,0.00,OVC,,0.00,478.0,WeatherDisplay:10.37,2013-01-04 16:14:00,
2013-01-04 11:19:00,38.9,21.8,30.43,WNW,297,8.1,12.7,50,0.00,OVC,,0.00,483.0,WeatherDisplay:10.37,2013-01-04 16:19:00,
2013-01-04 11:20:00,38.9,22.3,30.43,WNW,286,10.2,11.5,51,0.00,OVC,,0.00,483.0,WeatherDisplay:10.37,2013-01-04 16:20:00,
2013-01-04 11:24:00,38.9,21.8,30.43,WNW,293,9.0,11.5,50,0.00,OVC,,0.00,489.0,WeatherDisplay:10.37,2013-01-04 16:24:00,
2013-01-04 11:27:00,39.1,22.5,30.43,NW,309,7.6,11.5,51,0.00,OVC,,0.00,490.0,WeatherDisplay:10.37,2013-01-04 16:27:00,
2013-01-04 11:28:00,39.2,23.0,30.43,WNW,302,10.1,11.5,52,0.00,OVC,,0.00,490.0,WeatherDisplay:10.37,2013-01-04 16:28:00,
2013-01-04 11:29:00,39.2,22.6,30.43,NW,305,5.9,12.7,51,0.00,OVC,,0.00,492.0,WeatherDisplay:10.37,2013-01-04 16:29:00,
2013-01-04 11:33:00,39.5,23.3,30.42,WNW,288,5.8,6.9,52,0.00,OVC,,0.00,496.0,WeatherDisplay:10.37,2013-01-04 16:33:00,
2013-01-04 11:34:00,39.6,23.4,30.42,WNW,288,7.1,9.2,52,0.00,OVC,,0.00,496.0,WeatherDisplay:10.37,2013-01-04 16:34:00,
2013-01-04 11:35:00,39.6,22.5,30.42,WNW,288,4.9,9.2,50,0.00,OVC,,0.00,497.0,WeatherDisplay:10.37,2013-01-04 16:35:00,
2013-01-04 11:38:00,39.8,23.1,30.42,WNW,290,3.9,9.0,51,0.00,OVC,,0.00,499.0,WeatherDisplay:10.37,2013-01-04 16:38:00,
2013-01-04 11:39:00,39.9,23.7,30.42,WNW,292,9.8,11.5,52,0.00,OVC,,0.00,501.0,WeatherDisplay:10.37,2013-01-04 16:39:00,
2013-01-04 11:40:00,39.9,22.7,30.42,WNW,293,9.7,12.7,50,0.00,OVC,,0.00,501.0,WeatherDisplay:10.37,2013-01-04 16:40:00,
2013-01-04 11:43:00,40.2,24.0,30.42,WNW,293,4.0,5.8,52,0.00,OVC,,0.00,503.0,WeatherDisplay:10.37,2013-01-04 16:43:00,
2013-01-04 11:46:00,40.2,23.0,30.42,WNW,294,3.6,5.8,50,0.00,OVC,,0.00,506.0,WeatherDisplay:10.37,2013-01-04 16:46:00,
2013-01-04 11:48:00,40.3,23.6,30.41,WNW,294,3.4,5.0,51,0.00,OVC,,0.00,506.0,WeatherDisplay:10.37,2013-01-04 16:48:00,
2013-01-04 11:49:00,40.5,23.8,30.41,WNW,294,3.9,6.0,51,0.00,OVC,,0.00,506.0,WeatherDisplay:10.37,2013-01-04 16:49:00,
2013-01-04 11:50:00,40.6,23.4,30.41,West,276,7.0,10.4,50,0.00,OVC,,0.00,506.0,WeatherDisplay:10.37,2013-01-04 16:50:00,
2013-01-04 11:51:00,40.6,22.9,30.41,West,276,4.2,9.2,49,0.00,OVC,,0.00,510.0,WeatherDisplay:10.37,2013-01-04 16:51:00,
2013-01-04 11:54:00,40.8,23.6,30.41,WNW,286,5.8,10.4,50,0.00,OVC,,0.00,512.0,WeatherDisplay:10.37,2013-01-04 16:54:00,
2013-01-04 11:55:00,40.8,23.6,30.41,WNW,286,4.4,5.8,50,0.00,OVC,,0.00,513.0,WeatherDisplay:10.37,2013-01-04 16:55:00,
2013-01-04 11:57:00,40.9,24.1,30.41,West,265,7.2,10.4,51,0.00,OVC,,0.00,513.0,WeatherDisplay:10.37,2013-01-04 16:57:00,
2013-01-04 11:59:00,41.2,24.4,30.41,WSW,247,10.8,14.0,51,0.00,OVC,,0.00,513.0,WeatherDisplay:10.37,2013-01-04 16:59:00,
2013-01-04 12:02:00,41.3,23.1,30.41,WSW,247,13.1,16.1,48,0.00,OVC,,0.00,515.0,WeatherDisplay:10.37,2013-01-04 17:02:00,
2013-01-04 12:03:00,41.3,22.6,30.41,WSW,253,10.7,13.8,47,0.00,OVC,,0.00,515.0,WeatherDisplay:10.37,2013-01-04 17:03:00,
2013-01-04 12:04:00,41.3,22.6,30.41,West,264,13.4,17.3,47,0.00,OVC,,0.00,515.0,WeatherDisplay:10.37,2013-01-04 17:04:00,
2013-01-04 12:09:00,41.3,24.0,30.41,WSW,248,8.4,10.0,50,0.00,OVC,,0.00,517.0,WeatherDisplay:10.37,2013-01-04 17:09:00,
2013-01-04 12:10:00,41.5,23.2,30.41,WSW,249,9.2,11.5,48,0.00,OVC,,0.00,517.0,WeatherDisplay:10.37,2013-01-04 17:10:00,
2013-01-04 12:14:00,41.8,23.5,30.41,WSW,247,7.0,11.5,48,0.00,OVC,,0.00,519.0,WeatherDisplay:10.37,2013-01-04 17:14:00,
2013-01-04 12:15:00,41.8,23.5,30.41,WSW,244,6.6,11.5,48,0.00,OVC,,0.00,519.0,WeatherDisplay:10.37,2013-01-04 17:15:00,
2013-01-04 12:16:00,41.8,23.0,30.41,SW,230,8.2,13.0,47,0.00,OVC,,0.00,519.0,WeatherDisplay:10.37,2013-01-04 17:16:00,
2013-01-04 12:19:00,41.9,22.6,30.40,WSW,249,6.4,11.5,46,0.00,OVC,,0.00,520.0,WeatherDisplay:10.37,2013-01-04 17:19:00,
2013-01-04 12:20:00,42.1,23.8,30.40,WSW,250,8.0,10.4,48,0.00,OVC,,0.00,519.0,WeatherDisplay:10.37,2013-01-04 17:20:00,
2013-01-04 12:23:00,42.1,22.8,30.40,SW,233,10.9,13.8,46,0.00,OVC,,0.00,519.0,WeatherDisplay:10.37,2013-01-04 17:23:00,
2013-01-04 12:25:00,42.1,22.8,30.40,WSW,237,10.5,12.7,46,0.00,OVC,,0.00,519.0,WeatherDisplay:10.37,2013-01-04 17:25:00,
2013-01-04 12:26:00,41.9,22.6,30.40,SW,236,10.2,12.7,46,0.00,OVC,,0.00,519.0,WeatherDisplay:10.37,2013-01-04 17:26:00,
2013-01-04 12:28:00,42.1,23.8,30.40,WSW,238,5.1,9.2,48,0.00,OVC,,0.00,519.0,WeatherDisplay:10.37,2013-01-04 17:28:00,
2013-01-04 12:29:00,42.2,23.4,30.40,WSW,241,5.3,6.9,47,0.00,OVC,,0.00,519.0,WeatherDisplay:10.37,2013-01-04 17:29:00,
2013-01-04 12:30:00,42.2,22.9,30.40,WSW,242,4.6,10.0,46,0.00,OVC,,0.00,515.0,WeatherDisplay:10.37,2013-01-04 17:30:00,
2013-01-04 12:31:00,42.3,23.5,30.40,WSW,250,8.3,10.4,47,0.00,OVC,,0.00,517.0,WeatherDisplay:10.37,2013-01-04 17:31:00,
2013-01-04 12:33:00,42.6,24.3,30.39,West,269,6.5,12.7,48,0.00,CLR,OVC,0.00,519.0,WeatherDisplay:10.37,2013-01-04 17:33:00,
2013-01-04 12:35:00,42.9,23.5,30.39,West,259,5.6,7.0,46,0.00,CLR,OVC,0.00,517.0,WeatherDisplay:10.37,2013-01-04 17:35:00,
2013-01-04 12:37:00,43.1,23.2,30.39,WSW,256,13.3,16.1,45,0.00,CLR,OVC,0.00,515.0,WeatherDisplay:10.37,2013-01-04 17:37:00,
2013-01-04 12:39:00,42.9,21.9,30.39,West,279,10.1,13.8,43,0.00,CLR,OVC,0.00,517.0,WeatherDisplay:10.37,2013-01-04 17:39:00,
2013-01-04 12:40:00,42.8,21.8,30.39,WNW,298,8.5,11.5,43,0.00,CLR,OVC,0.00,517.0,WeatherDisplay:10.37,2013-01-04 17:40:00,
2013-01-04 12:43:00,42.8,23.4,30.39,West,264,7.4,11.5,46,0.00,CLR,OVC,0.00,517.0,WeatherDisplay:10.37,2013-01-04 17:43:00,
2013-01-04 12:44:00,42.9,23.5,30.39,SW,232,6.6,10.4,46,0.00,CLR,OVC,0.00,515.0,WeatherDisplay:10.37,2013-01-04 17:44:00,
2013-01-04 12:46:00,43.1,24.2,30.39,WNW,298,10.2,12.7,47,0.00,CLR,OVC,0.00,517.0,WeatherDisplay:10.37,2013-01-04 17:46:00,
2013-01-04 12:47:00,42.9,21.9,30.39,West,279,8.7,11.0,43,0.00,CLR,OVC,0.00,517.0,WeatherDisplay:10.37,2013-01-04 17:47:00,
2013-01-04 12:48:00,42.9,21.9,30.39,West,277,12.2,15.0,43,0.00,CLR,OVC,0.00,513.0,WeatherDisplay:10.37,2013-01-04 17:48:00,
2013-01-04 12:50:00,42.9,21.9,30.39,West,276,6.7,13.8,43,0.00,CLR,OVC,0.00,515.0,WeatherDisplay:10.37,2013-01-04 17:50:00,
2013-01-04 12:52:00,43.2,22.7,30.39,WNW,284,13.6,17.3,44,0.00,CLR,OVC,0.00,513.0,WeatherDisplay:10.37,2013-01-04 17:52:00,
2013-01-04 12:55:00,43.2,22.2,30.39,WSW,250,9.0,15.0,43,0.00,CLR,OVC,0.00,513.0,WeatherDisplay:10.37,2013-01-04 17:55:00,
2013-01-04 12:56:00,43.3,22.3,30.39,WSW,250,12.6,15.0,43,0.00,CLR,OVC,0.00,512.0,WeatherDisplay:10.37,2013-01-04 17:56:00,
2013-01-04 12:57:00,43.3,22.3,30.39,West,273,13.2,16.1,43,0.00,CLR,OVC,0.00,512.0,WeatherDisplay:10.37,2013-01-04 17:57:00,
2013-01-04 13:02:00,43.2,23.8,30.38,WNW,296,5.6,6.0,46,0.00,CLR,OVC,0.00,508.0,WeatherDisplay:10.37,2013-01-04 18:02:00,
2013-01-04 13:03:00,43.2,22.7,30.38,NW,306,5.8,6.9,44,0.00,CLR,OVC,0.00,508.0,WeatherDisplay:10.37,2013-01-04 18:03:00,
2013-01-04 13:06:00,43.3,22.8,30.38,WSW,240,8.2,11.0,44,0.00,CLR,OVC,0.00,506.0,WeatherDisplay:10.37,2013-01-04 18:06:00,
2013-01-04 13:07:00,43.5,23.5,30.38,SW,234,11.0,13.0,45,0.00,CLR,OVC,0.00,506.0,WeatherDisplay:10.37,2013-01-04 18:07:00,
2013-01-04 13:08:00,43.3,23.4,30.38,SW,236,11.9,12.7,45,0.00,CLR,OVC,0.00,506.0,WeatherDisplay:10.37,2013-01-04 18:08:00,
2013-01-04 13:12:00,43.8,23.8,30.38,West,265,10.7,13.8,45,0.00,CLR,OVC,0.00,504.0,WeatherDisplay:10.37,2013-01-04 18:12:00,
2013-01-04 13:13:00,43.9,23.4,30.38,WSW,240,8.1,13.8,44,0.00,CLR,OVC,0.00,504.0,WeatherDisplay:10.37,2013-01-04 18:13:00,
2013-01-04 13:14:00,43.9,23.4,30.38,WSW,246,11.8,14.0,44,0.00,CLR,OVC,0.00,503.0,WeatherDisplay:10.37,2013-01-04 18:14:00,
2013-01-04 13:18:00,43.9,24.4,30.36,WSW,242,8.9,12.7,46,0.00,CLR,OVC,0.00,501.0,WeatherDisplay:10.37,2013-01-04 18:18:00,
2013-01-04 13:20:00,43.9,22.3,30.36,West,265,12.4,15.0,42,0.00,CLR,OVC,0.00,499.0,WeatherDisplay:10.37,2013-01-04 18:20:00,
2013-01-04 13:21:00,43.9,22.3,30.36,WSW,256,6.2,15.0,42,0.00,CLR,OVC,0.00,499.0,WeatherDisplay:10.37,2013-01-04 18:21:00,
2013-01-04 13:24:00,43.9,22.3,30.36,WSW,247,11.6,12.7,42,0.00,CLR,OVC,0.00,494.0,WeatherDisplay:10.37,2013-01-04 18:24:00,
2013-01-04 13:25:00,43.9,22.3,30.36,WSW,250,11.2,13.8,42,0.00,CLR,OVC,0.00,494.0,WeatherDisplay:10.37,2013-01-04 18:25:00,
2013-01-04 13:26:00,44.1,23.6,30.36,SW,236,6.4,11.5,44,0.00,CLR,OVC,0.00,492.0,WeatherDisplay:10.37,2013-01-04 18:26:00,
2013-01-04 13:27:00,44.1,23.0,30.36,WSW,254,6.9,10.4,43,0.00,CLR,OVC,0.00,490.0,WeatherDisplay:10.37,2013-01-04 18:27:00,
2013-01-04 13:30:00,44.1,23.0,30.36,WSW,245,10.0,16.0,43,0.00,CLR,OVC,0.00,489.0,WeatherDisplay:10.37,2013-01-04 18:30:00,
2013-01-04 13:32:00,44.1,23.6,30.36,WSW,244,7.0,10.4,44,0.00,CLR,OVC,0.00,489.0,WeatherDisplay:10.37,2013-01-04 18:32:00,
2013-01-04 13:33:00,44.1,21.9,30.36,WSW,244,5.2,10.4,41,0.00,CLR,OVC,0.00,489.0,WeatherDisplay:10.37,2013-01-04 18:33:00,
2013-01-04 13:37:00,44.3,22.1,30.36,WSW,243,14.6,18.4,41,0.00,CLR,OVC,0.00,483.0,WeatherDisplay:10.37,2013-01-04 18:37:00,
2013-01-04 13:38:00,44.5,22.2,30.36,WSW,242,13.9,16.1,41,0.00,CLR,OVC,0.00,483.0,WeatherDisplay:10.37,2013-01-04 18:38:00,
2013-01-04 13:40:00,44.5,21.0,30.36,WSW,258,8.7,11.5,39,0.00,CLR,OVC,0.00,480.0,WeatherDisplay:10.37,2013-01-04 18:40:00,
2013-01-04 13:44:00,44.8,23.6,30.36,WSW,257,13.5,17.3,43,0.00,CLR,OVC,0.00,475.0,WeatherDisplay:10.37,2013-01-04 18:44:00,
2013-01-04 13:45:00,44.8,23.6,30.36,WSW,250,13.0,18.0,43,0.00,CLR,OVC,0.00,475.0,WeatherDisplay:10.37,2013-01-04 18:45:00,
2013-01-04 13:46:00,44.8,21.3,30.36,West,274,7.8,15.0,39,0.00,CLR,OVC,0.00,473.0,WeatherDisplay:10.37,2013-01-04 18:46:00,
2013-01-04 13:49:00,44.9,21.4,30.35,West,263,10.1,14.0,39,0.00,CLR,OVC,0.00,469.0,WeatherDisplay:10.37,2013-01-04 18:49:00,
2013-01-04 13:50:00,44.9,20.8,30.35,West,259,10.5,15.0,38,0.00,CLR,OVC,0.00,468.0,WeatherDisplay:10.37,2013-01-04 18:50:00,
2013-01-04 13:51:00,44.8,21.3,30.35,WSW,254,10.6,12.7,39,0.00,CLR,OVC,0.00,468.0,WeatherDisplay:10.37,2013-01-04 18:51:00,
2013-01-04 13:52:00,44.8,20.7,30.35,WSW,258,11.3,13.8,38,0.00,CLR,OVC,0.00,466.0,WeatherDisplay:10.37,2013-01-04 18:52:00,
2013-01-04 13:54:00,44.8,21.3,30.35,WSW,252,9.3,12.7,39,0.00,CLR,OVC,0.00,464.0,WeatherDisplay:10.37,2013-01-04 18:54:00,
2013-01-04 13:57:00,44.9,20.8,30.35,West,259,10.6,13.8,38,0.00,CLR,OVC,0.00,461.0,WeatherDisplay:10.37,2013-01-04 18:57:00,
2013-01-04 14:01:00,45.1,21.6,30.35,WSW,237,10.5,16.0,39,0.00,CLR,OVC,0.00,455.0,WeatherDisplay:10.37,2013-01-04 19:01:00,
2013-01-04 14:03:00,45.1,21.0,30.34,WSW,257,14.6,18.4,38,0.00,CLR,OVC,0.00,450.0,WeatherDisplay:10.37,2013-01-04 19:03:00,
2013-01-04 14:06:00,45.1,21.0,30.34,WSW,249,10.5,12.7,38,0.00,CLR,OVC,0.00,448.0,WeatherDisplay:10.37,2013-01-04 19:06:00,
2013-01-04 14:07:00,44.9,20.2,30.34,West,259,7.1,12.7,37,0.00,CLR,OVC,0.00,448.0,WeatherDisplay:10.37,2013-01-04 19:07:00,
2013-01-04 14:08:00,45.1,21.0,30.34,West,259,4.4,6.0,38,0.00,CLR,OVC,0.00,446.0,WeatherDisplay:10.37,2013-01-04 19:08:00,
2013-01-04 14:10:00,45.2,21.7,30.34,WSW,258,6.8,12.7,39,0.00,CLR,OVC,0.00,445.0,WeatherDisplay:10.37,2013-01-04 19:10:00,
2013-01-04 14:12:00,45.5,21.9,30.34,West,267,8.8,16.0,39,0.00,CLR,OVC,0.00,439.0,WeatherDisplay:10.37,2013-01-04 19:12:00,
2013-01-04 14:16:00,45.7,21.5,30.34,West,277,10.2,12.7,38,0.00,CLR,OVC,0.00,431.0,WeatherDisplay:10.37,2013-01-04 19:16:00,
2013-01-04 14:17:00,45.7,20.2,30.34,West,278,11.1,16.1,36,0.00,CLR,OVC,0.00,429.0,WeatherDisplay:10.37,2013-01-04 19:17:00,
2013-01-04 14:18:00,45.5,20.1,30.34,West,278,9.0,15.0,36,0.00,CLR,OVC,0.00,427.0,WeatherDisplay:10.37,2013-01-04 19:18:00,
2013-01-04 14:19:00,45.5,20.7,30.34,WNW,285,8.2,11.5,37,0.00,CLR,OVC,0.00,425.0,WeatherDisplay:10.37,2013-01-04 19:19:00,
2013-01-04 14:22:00,45.5,21.9,30.34,WNW,295,8.4,10.4,39,0.00,CLR,OVC,0.00,422.0,WeatherDisplay:10.37,2013-01-04 19:22:00,
2013-01-04 14:23:00,45.5,20.7,30.34,WNW,294,6.3,9.2,37,0.00,CLR,OVC,0.00,422.0,WeatherDisplay:10.37,2013-01-04 19:23:00,
2013-01-04 14:24:00,45.7,21.5,30.34,WSW,238,6.4,8.0,38,0.00,CLR,OVC,0.00,420.0,WeatherDisplay:10.37,2013-01-04 19:24:00,
2013-01-04 14:28:00,46.1,22.5,30.34,WNW,294,10.6,17.3,39,0.00,CLR,OVC,0.00,411.0,WeatherDisplay:10.37,2013-01-04 19:28:00,
2013-01-04 14:29:00,46.1,20.6,30.34,WNW,296,12.0,17.3,36,0.00,CLR,OVC,0.00,410.0,WeatherDisplay:10.37,2013-01-04 19:29:00,
2013-01-04 14:30:00,46.1,21.2,30.34,West,277,13.0,17.0,37,0.00,CLR,OVC,0.00,410.0,WeatherDisplay:10.37,2013-01-04 19:30:00,
2013-01-04 14:31:00,46.1,20.6,30.34,West,275,6.7,10.4,36,0.00,CLR,OVC,0.00,408.0,WeatherDisplay:10.37,2013-01-04 19:31:00,
2013-01-04 14:35:00,46.2,21.3,30.33,West,275,7.7,11.5,37,0.00,CLR,OVC,0.00,397.0,WeatherDisplay:10.37,2013-01-04 19:35:00,
2013-01-04 14:36:00,46.4,20.9,30.33,WNW,289,9.0,11.5,36,0.00,CLR,OVC,0.00,397.0,WeatherDisplay:10.37,2013-01-04 19:36:00,
2013-01-04 14:38:00,46.4,21.5,30.33,West,267,8.8,16.0,37,0.00,CLR,OVC,0.00,394.0,WeatherDisplay:10.37,2013-01-04 19:38:00,
2013-01-04 14:42:00,46.1,19.9,30.33,SW,236,5.0,6.9,35,0.00,CLR,OVC,0.00,388.0,WeatherDisplay:10.37,2013-01-04 19:42:00,
2013-01-04 14:43:00,46.1,22.5,30.33,West,259,7.1,11.5,39,0.00,CLR,OVC,0.00,387.0,WeatherDisplay:10.37,2013-01-04 19:43:00,
2013-01-04 14:48:00,46.2,21.3,30.33,WNW,284,7.0,11.5,37,0.00,CLR,OVC,0.00,376.0,WeatherDisplay:10.37,2013-01-04 19:48:00,
2013-01-04 14:49:00,46.2,21.3,30.33,West,278,8.0,11.5,37,0.00,CLR,OVC,0.00,371.0,WeatherDisplay:10.37,2013-01-04 19:49:00,
2013-01-04 14:51:00,46.4,20.2,30.33,West,273,7.2,11.5,35,0.00,CLR,OVC,0.00,367.0,WeatherDisplay:10.37,2013-01-04 19:51:00,
2013-01-04 14:54:00,46.7,22.4,30.33,WNW,291,7.3,7.3,38,0.00,CLR,OVC,0.00,360.0,WeatherDisplay:10.37,2013-01-04 19:54:00,
2013-01-04 14:56:00,46.7,19.8,30.33,West,279,10.0,10.4,34,0.00,CLR,OVC,0.00,359.0,WeatherDisplay:10.37,2013-01-04 19:56:00,
2013-01-04 14:57:00,46.5,20.3,30.33,WNW,289,6.2,13.8,35,0.00,CLR,OVC,0.00,355.0,WeatherDisplay:10.37,2013-01-04 19:57:00,
2013-01-04 14:58:00,46.5,20.3,30.33,WSW,250,6.1,9.2,35,0.00,CLR,OVC,0.00,355.0,WeatherDisplay:10.37,2013-01-04 19:58:00,
2013-01-04 15:00:00,46.5,20.9,30.33,West,271,8.0,14.0,36,0.00,CLR,OVC,0.00,350.0,WeatherDisplay:10.37,2013-01-04 20:00:00,
2013-01-04 15:03:00,46.4,20.2,30.33,WSW,248,8.0,11.5,35,0.00,CLR,OVC,0.00,345.0,WeatherDisplay:10.37,2013-01-04 20:03:00,
2013-01-04 15:04:00,46.4,20.2,30.33,SW,231,7.9,11.5,35,0.00,CLR,OVC,0.00,343.0,WeatherDisplay:10.37,2013-01-04 20:04:00,
2013-01-04 15:07:00,46.5,19.6,30.33,WNW,284,11.3,13.0,34,0.00,CLR,OVC,0.00,338.0,WeatherDisplay:10.37,2013-01-04 20:07:00,
2013-01-04 15:08:00,46.4,19.5,30.33,West,273,9.4,11.5,34,0.00,CLR,OVC,0.00,336.0,WeatherDisplay:10.37,2013-01-04 20:08:00,
2013-01-04 15:09:00,46.4,20.2,30.33,West,270,6.2,8.1,35,0.00,CLR,OVC,0.00,330.0,WeatherDisplay:10.37,2013-01-04 20:09:00,
2013-01-04 15:12:00,46.5,19.6,30.33,West,259,7.7,12.7,34,0.00,CLR,OVC,0.00,323.0,WeatherDisplay:10.37,2013-01-04 20:12:00,
2013-01-04 15:14:00,46.5,18.9,30.33,West,259,3.5,5.8,33,0.00,CLR,OVC,0.00,320.0,WeatherDisplay:10.37,2013-01-04 20:14:00,
2013-01-04 15:15:00,46.7,20.5,30.33,West,259,3.2,5.8,35,0.00,CLR,OVC,0.00,316.0,WeatherDisplay:10.37,2013-01-04 20:15:00,
2013-01-04 15:18:00,47.1,19.4,30.33,West,270,6.6,11.5,33,0.00,CLR,OVC,0.00,309.0,WeatherDisplay:10.37,2013-01-04 20:18:00,
2013-01-04 15:19:00,47.1,20.1,30.33,WNW,291,9.4,12.7,34,0.00,CLR,OVC,0.00,308.0,WeatherDisplay:10.37,2013-01-04 20:19:00,
2013-01-04 15:20:00,47.1,20.1,30.33,WNW,291,8.2,11.5,34,0.00,FEW,OVC,0.00,306.0,WeatherDisplay:10.37,2013-01-04 20:20:00,
2013-01-04 15:21:00,47.1,20.8,30.33,WNW,285,6.3,11.5,35,0.00,FEW,OVC,0.00,304.0,WeatherDisplay:10.37,2013-01-04 20:21:00,
2013-01-04 15:23:00,47.1,20.1,30.33,West,271,5.9,8.1,34,0.00,FEW,OVC,0.00,297.0,WeatherDisplay:10.37,2013-01-04 20:23:00,
2013-01-04 15:24:00,47.1,19.4,30.33,SW,236,6.0,12.0,33,0.00,FEW,OVC,0.00,295.0,WeatherDisplay:10.37,2013-01-04 20:24:00,
2013-01-04 15:25:00,47.1,20.8,30.33,SW,232,8.5,11.5,35,0.00,FEW,OVC,0.00,292.0,WeatherDisplay:10.37,2013-01-04 20:25:00,
2013-01-04 15:26:00,47.3,21.0,30.33,West,272,7.2,11.5,35,0.00,FEW,OVC,0.00,288.0,WeatherDisplay:10.37,2013-01-04 20:26:00,
2013-01-04 15:28:00,47.4,21.1,30.33,SW,236,6.9,10.4,35,0.00,FEW,OVC,0.00,283.0,WeatherDisplay:10.37,2013-01-04 20:28:00,
2013-01-04 15:31:00,47.4,21.1,30.33,SW,229,12.2,15.0,35,0.00,SCT,OVC,0.00,279.0,WeatherDisplay:10.37,2013-01-04 20:31:00,
2013-01-04 15:34:00,47.3,20.3,30.34,WSW,237,9.3,12.7,34,0.00,SCT,OVC,0.00,271.0,WeatherDisplay:10.37,2013-01-04 20:34:00,
2013-01-04 15:37:00,47.3,18.1,30.34,West,259,12.5,16.1,31,0.00,SCT,OVC,0.00,265.0,WeatherDisplay:10.37,2013-01-04 20:37:00,
2013-01-04 15:39:00,47.3,18.1,30.34,West,261,12.7,16.1,31,0.00,SCT,OVC,0.00,262.0,WeatherDisplay:10.37,2013-01-04 20:39:00,
2013-01-04 15:40:00,47.3,18.1,30.34,West,259,11.4,16.1,31,0.00,SCT,OVC,0.00,260.0,WeatherDisplay:10.37,2013-01-04 20:40:00,
2013-01-04 15:41:00,47.3,18.1,30.34,West,259,8.9,12.7,31,0.00,SCT,OVC,0.00,260.0,WeatherDisplay:10.37,2013-01-04 20:41:00,
2013-01-04 15:42:00,47.3,18.1,30.34,WSW,254,10.2,15.0,31,0.00,SCT,OVC,0.00,258.0,WeatherDisplay:10.37,2013-01-04 20:42:00,
2013-01-04 15:44:00,47.3,17.4,30.34,WSW,242,10.3,15.0,30,0.00,SCT,OVC,0.00,257.0,WeatherDisplay:10.37,2013-01-04 20:44:00,
2013-01-04 15:47:00,47.3,18.1,30.34,WSW,248,6.9,10.4,31,0.00,SCT,OVC,0.00,257.0,WeatherDisplay:10.37,2013-01-04 20:47:00,
2013-01-04 15:48:00,47.4,20.4,30.34,WSW,248,5.6,6.9,34,0.00,SCT,OVC,0.00,258.0,WeatherDisplay:10.37,2013-01-04 20:48:00,
2013-01-04 15:50:00,47.7,20.0,30.34,WSW,241,8.5,12.0,33,0.00,SCT,OVC,0.00,260.0,WeatherDisplay:10.37,2013-01-04 20:50:00,
2013-01-04 15:52:00,47.7,18.5,30.34,WSW,244,11.4,13.0,31,0.00,SCT,OVC,0.00,255.0,WeatherDisplay:10.37,2013-01-04 20:52:00,
2013-01-04 15:53:00,47.7,18.5,30.34,WSW,249,11.0,13.8,31,0.00,SCT,OVC,0.00,255.0,WeatherDisplay:10.37,2013-01-04 20:53:00,
2013-01-04 15:55:00,47.7,19.2,30.34,WSW,245,14.5,17.3,32,0.00,SCT,OVC,0.00,234.0,WeatherDisplay:10.37,2013-01-04 20:55:00,
2013-01-04 15:57:00,47.6,19.2,30.34,WSW,250,9.5,13.8,32,0.00,BKN,OVC,0.00,95.0,WeatherDisplay:10.37,2013-01-04 20:57:00,
2013-01-04 15:58:00,47.4,19.7,30.34,WSW,254,6.1,11.5,33,0.00,BKN,OVC,0.00,93.0,WeatherDisplay:10.37,2013-01-04 20:58:00,
2013-01-04 15:59:00,47.4,19.7,30.34,WSW,242,8.8,10.0,33,0.00,BKN,OVC,0.00,97.0,WeatherDisplay:10.37,2013-01-04 20:59:00,
2013-01-04 16:04:00,47.1,18.7,30.34,West,271,6.5,9.2,32,0.00,BKN,OVC,0.00,93.0,WeatherDisplay:10.37,2013-01-04 21:04:00,
2013-01-04 16:05:00,47.1,18.7,30.34,West,262,5.8,8.1,32,0.00,BKN,OVC,0.00,88.0,WeatherDisplay:10.37,2013-01-04 21:05:00,
2013-01-04 16:07:00,47.1,20.1,30.34,West,264,5.8,9.2,34,0.00,BKN,OVC,0.00,70.0,WeatherDisplay:10.37,2013-01-04 21:07:00,
2013-01-04 16:09:00,47.1,20.1,30.34,West,277,4.0,9.2,34,0.00,BKN,OVC,0.00,62.0,WeatherDisplay:10.37,2013-01-04 21:09:00,
2013-01-04 16:10:00,47.1,19.4,30.34,West,277,4.2,5.8,33,0.00,BKN,OVC,0.00,58.0,WeatherDisplay:10.37,2013-01-04 21:10:00,
2013-01-04 16:13:00,47.1,20.8,30.34,West,277,1.6,6.0,35,0.00,BKN,OVC,0.00,49.0,WeatherDisplay:10.37,2013-01-04 21:13:00,
2013-01-04 16:15:00,47.1,20.1,30.34,West,259,6.2,6.9,34,0.00,BKN,OVC,0.00,44.0,WeatherDisplay:10.37,2013-01-04 21:15:00,
2013-01-04 16:16:00,47.0,20.0,30.34,West,259,5.7,6.9,34,0.00,BKN,OVC,0.00,40.0,WeatherDisplay:10.37,2013-01-04 21:16:00,
2013-01-04 16:20:00,46.8,19.9,30.34,WSW,253,8.4,10.4,34,0.00,BKN,OVC,0.00,37.0,WeatherDisplay:10.37,2013-01-04 21:20:00,
2013-01-04 16:21:00,46.8,19.2,30.34,WSW,253,7.6,11.5,33,0.00,BKN,OVC,0.00,37.0,WeatherDisplay:10.37,2013-01-04 21:21:00,
2013-01-04 16:22:00,46.8,19.2,30.34,WSW,253,4.1,6.9,33,0.00,BKN,OVC,0.00,33.0,WeatherDisplay:10.37,2013-01-04 21:22:00,
2013-01-04 16:23:00,46.8,19.2,30.34,WSW,253,3.7,4.6,33,0.00,BKN,OVC,0.00,33.0,WeatherDisplay:10.37,2013-01-04 21:23:00,
2013-01-04 16:26:00,46.8,19.9,30.34,WSW,254,4.7,5.0,34,0.00,BKN,OVC,0.00,28.0,WeatherDisplay:10.37,2013-01-04 21:26:00,
2013-01-04 16:28:00,46.8,20.6,30.34,WSW,248,8.8,10.4,35,0.00,OVC,,0.00,26.0,WeatherDisplay:10.37,2013-01-04 21:28:00,
2013-01-04 16:29:00,46.8,19.9,30.34,WSW,257,7.2,10.4,34,0.00,OVC,,0.00,26.0,WeatherDisplay:10.37,2013-01-04 21:29:00,
2013-01-04 16:33:00,46.7,20.5,30.34,West,259,4.5,6.0,35,0.00,OVC,,0.00,25.0,WeatherDisplay:10.37,2013-01-04 21:33:00,
2013-01-04 16:34:00,46.7,19.8,30.34,West,259,5.4,7.0,34,0.00,OVC,,0.00,21.0,WeatherDisplay:10.37,2013-01-04 21:34:00,
2013-01-04 16:39:00,46.7,19.1,30.34,West,277,9.7,10.4,33,0.00,OVC,,0.00,16.0,WeatherDisplay:10.37,2013-01-04 21:39:00,
2013-01-04 16:40:00,46.7,19.1,30.34,West,277,10.6,12.7,33,0.00,OVC,,0.00,16.0,WeatherDisplay:10.37,2013-01-04 21:40:00,
2013-01-04 16:41:00,46.7,19.1,30.34,West,276,8.0,11.5,33,0.00,OVC,,0.00,16.0,WeatherDisplay:10.37,2013-01-04 21:41:00,
2013-01-04 16:43:00,46.7,19.1,30.34,West,276,4.5,6.9,33,0.00,OVC,,0.00,14.0,WeatherDisplay:10.37,2013-01-04 21:43:00,
2013-01-04 16:44:00,46.7,19.8,30.34,West,276,4.1,4.6,34,0.00,OVC,,0.00,12.0,WeatherDisplay:10.37,2013-01-04 21:44:00,
2013-01-04 16:46:00,46.7,19.8,30.34,West,276,4.6,6.0,34,0.00,OVC,,0.00,12.0,WeatherDisplay:10.37,2013-01-04 21:46:00,
2013-01-04 16:48:00,46.7,19.1,30.34,West,276,3.9,5.8,33,0.00,OVC,,0.00,11.0,WeatherDisplay:10.37,2013-01-04 21:48:00,
2013-01-04 16:50:00,46.7,19.8,30.34,West,276,3.8,4.6,34,0.00,OVC,,0.00,11.0,WeatherDisplay:10.37,2013-01-04 21:50:00,
2013-01-04 16:51:00,46.7,19.8,30.34,West,276,2.9,3.5,34,0.00,OVC,,0.00,9.0,WeatherDisplay:10.37,2013-01-04 21:51:00,
2013-01-04 16:55:00,46.5,20.3,30.34,West,276,0.2,2.3,35,0.00,OVC,,0.00,7.0,WeatherDisplay:10.37,2013-01-04 21:55:00,
2013-01-04 16:56:00,46.5,19.6,30.34,West,276,0.0,0.0,34,0.00,OVC,,0.00,7.0,WeatherDisplay:10.37,2013-01-04 21:56:00,
2013-01-04 16:57:00,46.5,19.6,30.34,West,276,0.0,0.0,34,0.00,OVC,,0.00,7.0,WeatherDisplay:10.37,2013-01-04 21:57:00,
2013-01-04 16:58:00,46.5,20.3,30.34,West,276,1.4,3.5,35,0.00,OVC,,0.00,7.0,WeatherDisplay:10.37,2013-01-04 21:58:00,
2013-01-04 17:01:00,46.5,20.3,30.34,West,276,3.6,4.0,35,0.00,OVC,,0.00,5.0,WeatherDisplay:10.37,2013-01-04 22:01:00,
2013-01-04 17:02:00,46.5,20.3,30.34,West,276,2.7,3.5,35,0.00,OVC,,0.00,0.0,WeatherDisplay:10.37,2013-01-04 22:02:00,
2013-01-04 17:04:00,46.4,20.2,30.34,West,276,1.1,3.5,35,0.00,OVC,,0.00,0.0,WeatherDisplay:10.37,2013-01-04 22:04:00,
2013-01-04 17:07:00,46.4,20.2,30.34,West,276,0.3,4.0,35,0.00,OVC,,0.00,0.0,WeatherDisplay:10.37,2013-01-04 22:07:00,
2013-01-04 17:11:00,46.4,20.2,30.34,West,276,1.1,3.0,35,0.00,OVC,,0.00,0.0,WeatherDisplay:10.37,2013-01-04 22:11:00,
2013-01-04 17:12:00,46.4,20.2,30.34,West,276,4.3,7.0,35,0.00,OVC,,0.00,5.0,WeatherDisplay:10.37,2013-01-04 22:12:00,
2013-01-04 17:13:00,46.4,20.2,30.34,West,276,6.0,6.9,35,0.00,OVC,,0.00,5.0,WeatherDisplay:10.37,2013-01-04 22:13:00,
2013-01-04 17:14:00,46.4,20.2,30.34,West,276,3.8,5.8,35,0.00,OVC,,0.00,7.0,WeatherDisplay:10.37,2013-01-04 22:14:00,
2013-01-04 17:17:00,46.4,20.2,30.34,West,276,3.0,3.5,35,0.00,OVC,,0.00,0.0,WeatherDisplay:10.37,2013-01-04 22:17:00,
2013-01-04 17:18:00,46.4,20.2,30.34,West,276,4.5,5.8,35,0.00,OVC,,0.00,0.0,WeatherDisplay:10.37,2013-01-04 22:18:00,
2013-01-04 17:22:00,46.2,20.0,30.34,West,276,4.1,5.8,35,0.00,OVC,,0.00,0.0,WeatherDisplay:10.37,2013-01-04 22:22:00,
2013-01-04 17:23:00,46.2,20.0,30.34,West,276,4.2,5.8,35,0.00,OVC,,0.00,0.0,WeatherDisplay:10.37,2013-01-04 22:23:00,
2013-01-04 17:24:00,46.2,20.7,30.34,West,276,3.6,4.0,36,0.00,OVC,,0.00,0.0,WeatherDisplay:10.37,2013-01-04 22:24:00,
2013-01-04 17:25:00,46.2,20.7,30.34,West,276,4.6,5.8,36,0.00,OVC,,0.00,0.0,WeatherDisplay:10.37,2013-01-04 22:25:00,
2013-01-04 17:28:00,46.1,20.6,30.34,West,276,5.2,5.8,36,0.00,OVC,,0.00,0.0,WeatherDisplay:10.37,2013-01-04 22:28:00,
2013-01-04 17:29:00,46.1,20.6,30.34,West,276,4.9,5.8,36,0.00,OVC,,0.00,0.0,WeatherDisplay:10.37,2013-01-04 22:29:00,
2013-01-04 17:30:00,46.1,21.2,30.34,West,276,3.8,5.0,37,0.00,OVC,,0.00,0.0,WeatherDisplay:10.37,2013-01-04 22:30:00,
2013-01-04 17:32:00,46.0,20.5,30.34,West,274,4.7,8.0,36,0.00,OVC,,0.00,0.0,WeatherDisplay:10.37,2013-01-04 22:32:00,
2013-01-04 17:34:00,46.0,21.1,30.36,West,274,4.9,8.1,37,0.00,OVC,,0.00,0.0,WeatherDisplay:10.37,2013-01-04 22:34:00,
2013-01-04 17:35:00,46.0,21.1,30.36,West,274,6.3,7.0,37,0.00,OVC,,0.00,0.0,WeatherDisplay:10.37,2013-01-04 22:35:00,
2013-01-04 17:37:00,46.0,20.5,30.36,West,274,5.8,6.9,36,0.00,OVC,,0.00,0.0,WeatherDisplay:10.37,2013-01-04 22:37:00,
2013-01-04 17:39:00,46.0,21.1,30.36,West,274,5.6,6.9,37,0.00,OVC,,0.00,0.0,WeatherDisplay:10.37,2013-01-04 22:39:00,
2013-01-04 17:42:00,46.0,21.1,30.36,West,274,2.5,4.6,37,0.00,OVC,,0.00,0.0,WeatherDisplay:10.37,2013-01-04 22:42:00,
2013-01-04 17:43:00,46.0,21.1,30.36,West,274,1.2,4.6,37,0.00,OVC,,0.00,0.0,WeatherDisplay:10.37,2013-01-04 22:43:00,
2013-01-04 17:45:00,46.0,21.1,30.36,West,274,1.0,8.0,37,0.00,OVC,OVC,0.00,0.0,WeatherDisplay:10.37,2013-01-04 22:45:00,
2013-01-04 17:47:00,46.0,21.8,30.36,West,274,2.6,4.6,38,0.00,OVC,,0.00,0.0,WeatherDisplay:10.37,2013-01-04 22:47:00,
2013-01-04 17:48:00,45.8,21.6,30.35,West,274,3.1,5.0,38,0.00,OVC,,0.00,0.0,WeatherDisplay:10.37,2013-01-04 22:48:00,
2013-01-04 17:51:00,45.8,21.0,30.35,West,274,4.6,7.0,37,0.00,CLR,OVC,0.00,0.0,WeatherDisplay:10.37,2013-01-04 22:51:00,
2013-01-04 17:53:00,45.5,23.7,30.35,West,275,16.5,20.7,42,0.00,CLR,OVC,0.00,0.0,WeatherDisplay:10.37,2013-01-04 22:53:00,
2013-01-04 17:54:00,45.4,21.9,30.35,NW,310,17.2,21.9,39,0.00,CLR,OVC,0.00,0.0,WeatherDisplay:10.37,2013-01-04 22:54:00,
2013-01-04 17:57:00,45.1,19.7,30.35,NW,315,14.9,20.7,36,0.00,CLR,OVC,0.00,0.0,WeatherDisplay:10.37,2013-01-04 22:57:00,
2013-01-04 17:58:00,44.9,20.2,30.35,NNW,344,12.9,16.1,37,0.00,CLR,OVC,0.00,0.0,WeatherDisplay:10.37,2013-01-04 22:58:00,
2013-01-04 17:59:00,44.8,19.4,30.35,NW,320,14.6,18.4,36,0.00,CLR,OVC,0.00,0.0,WeatherDisplay:10.37,2013-01-04 22:59:00,
2013-01-04 18:02:00,44.5,19.2,30.35,NW,315,13.4,19.6,36,0.00,CLR,OVC,0.00,0.0,WeatherDisplay:10.37,2013-01-04 23:02:00,
2013-01-04 18:04:00,44.2,18.9,30.37,NNW,327,15.7,17.3,36,0.00,CLR,OVC,0.00,0.0,WeatherDisplay:10.37,2013-01-04 23:04:00,
2013-01-04 18:05:00,44.2,18.9,30.37,NW,320,15.5,20.7,36,0.00,CLR,OVC,0.00,0.0,WeatherDisplay:10.37,2013-01-04 23:05:00,
2013-01-04 18:06:00,44.1,19.5,30.37,NNW,338,10.0,15.0,37,0.00,CLR,OVC,0.00,0.0,WeatherDisplay:10.37,2013-01-04 23:06:00,
2013-01-04 18:09:00,43.9,18.6,30.37,NW,319,7.8,13.8,36,0.00,CLR,OVC,0.00,0.0,WeatherDisplay:10.37,2013-01-04 23:09:00,
2013-01-04 18:11:00,43.8,18.5,30.37,NNW,331,7.1,11.5,36,0.00,CLR,OVC,0.00,0.0,WeatherDisplay:10.37,2013-01-04 23:11:00,
2013-01-04 18:13:00,43.6,19.0,30.37,NW,307,6.3,10.4,37,0.00,CLR,OVC,0.00,0.0,WeatherDisplay:10.37,2013-01-04 23:13:00,
2013-01-04 18:15:00,43.6,18.4,30.37,NW,325,10.9,16.1,36,0.00,CLR,OVC,0.00,0.0,WeatherDisplay:10.37,2013-01-04 23:15:00,
2013-01-04 18:18:00,43.5,18.3,30.38,NW,313,11.6,13.8,36,0.00,CLR,OVC,0.00,0.0,WeatherDisplay:10.37,2013-01-04 23:18:00,
2013-01-04 18:19:00,43.5,18.9,30.38,NNW,329,7.5,13.8,37,0.00,CLR,OVC,0.00,0.0,WeatherDisplay:10.37,2013-01-04 23:19:00,
2013-01-04 18:20:00,43.3,18.7,30.38,NW,325,6.6,13.8,37,0.00,CLR,OVC,0.00,0.0,WeatherDisplay:10.37,2013-01-04 23:20:00,
2013-01-04 18:22:00,43.3,18.1,30.38,NW,315,5.5,9.2,36,0.00,CLR,OVC,0.00,0.0,WeatherDisplay:10.37,2013-01-04 23:22:00,
2013-01-04 18:24:00,43.2,18.6,30.38,NW,311,4.8,6.9,37,0.00,CLR,OVC,0.00,0.0,WeatherDisplay:10.37,2013-01-04 23:24:00,
2013-01-04 18:25:00,43.2,18.6,30.38,NW,311,4.5,6.9,37,0.00,CLR,OVC,0.00,0.0,WeatherDisplay:10.37,2013-01-04 23:25:00,
2013-01-04 18:26:00,43.1,18.6,30.38,NW,311,3.4,4.6,37,0.00,CLR,OVC,0.00,0.0,WeatherDisplay:10.37,2013-01-04 23:26:00,
2013-01-04 18:28:00,43.1,18.6,30.38,NW,311,3.0,3.5,37,0.00,CLR,OVC,0.00,0.0,WeatherDisplay:10.37,2013-01-04 23:28:00,
2013-01-04 18:30:00,42.9,18.4,30.38,NW,312,6.5,10.0,37,0.00,CLR,OVC,0.00,0.0,WeatherDisplay:10.37,2013-01-04 23:30:00,
2013-01-04 18:33:00,42.8,18.9,30.39,NW,309,5.5,5.8,38,0.00,CLR,OVC,0.00,0.0,WeatherDisplay:10.37,2013-01-04 23:33:00,
2013-01-04 18:34:00,42.8,18.3,30.39,NW,309,5.3,6.9,37,0.00,CLR,OVC,0.00,0.0,WeatherDisplay:10.37,2013-01-04 23:34:00,
2013-01-04 18:35:00,42.8,18.9,30.39,NW,309,4.9,6.0,38,0.00,CLR,OVC,0.00,0.0,WeatherDisplay:10.37,2013-01-04 23:35:00,
2013-01-04 18:38:00,42.6,18.7,30.39,NW,310,4.8,5.8,38,0.00,CLR,OVC,0.00,0.0,WeatherDisplay:10.37,2013-01-04 23:38:00,
2013-01-04 18:39:00,42.6,18.7,30.39,NW,309,5.1,6.0,38,0.00,CLR,OVC,0.00,0.0,WeatherDisplay:10.37,2013-01-04 23:39:00,
2013-01-04 18:40:00,42.5,19.3,30.39,NW,304,5.3,9.0,39,0.00,CLR,OVC,0.00,0.0,WeatherDisplay:10.37,2013-01-04 23:40:00,
2013-01-04 18:41:00,42.5,18.6,30.39,NW,304,5.3,9.2,38,0.00,CLR,OVC,0.00,0.0,WeatherDisplay:10.37,2013-01-04 23:41:00,
2013-01-04 18:44:00,42.3,18.5,30.39,NW,304,4.0,5.0,38,0.00,CLR,OVC,0.00,0.0,WeatherDisplay:10.37,2013-01-04 23:44:00,
2013-01-04 18:47:00,42.3,18.5,30.39,NW,304,3.7,5.0,38,0.00,CLR,OVC,0.00,0.0,WeatherDisplay:10.37,2013-01-04 23:47:00,
2013-01-04 18:49:00,42.2,18.4,30.40,NW,304,3.0,4.6,38,0.00,CLR,OVC,0.00,0.0,WeatherDisplay:10.37,2013-01-04 23:49:00,
2013-01-04 18:50:00,42.2,18.4,30.40,NW,304,1.1,4.6,38,0.00,CLR,OVC,0.00,0.0,WeatherDisplay:10.37,2013-01-04 23:50:00,
2013-01-04 18:54:00,42.1,18.3,30.40,WNW,302,2.8,5.8,38,0.00,CLR,OVC,0.00,0.0,WeatherDisplay:10.37,2013-01-04 23:54:00,
2013-01-04 18:55:00,42.1,18.3,30.40,WNW,302,3.7,5.8,38,0.00,CLR,OVC,0.00,0.0,WeatherDisplay:10.37,2013-01-04 23:55:00,
2013-01-04 19:00:00,42.0,18.8,30.40,WNW,303,5.0,7.0,39,0.00,CLR,OVC,0.00,0.0,WeatherDisplay:10.37,2013-01-05 00:00:00,
2013-01-04 19:01:00,41.8,18.6,30.40,NW,310,4.0,9.2,39,0.00,CLR,OVC,0.00,0.0,WeatherDisplay:10.37,2013-01-05 00:01:00,
2013-01-04 19:05:00,41.6,18.4,30.40,NW,311,5.5,6.9,39,0.00,CLR,OVC,0.00,0.0,WeatherDisplay:10.37,2013-01-05 00:05:00,
2013-01-04 19:06:00,41.5,18.4,30.40,NW,311,4.5,6.0,39,0.00,CLR,OVC,0.00,0.0,WeatherDisplay:10.37,2013-01-05 00:06:00,
2013-01-04 19:07:00,41.3,18.2,30.40,NW,315,5.7,6.9,39,0.00,CLR,OVC,0.00,0.0,WeatherDisplay:10.37,2013-01-05 00:07:00,
2013-01-04 19:10:00,41.3,18.2,30.40,NW,315,4.5,5.8,39,0.00,CLR,OVC,0.00,0.0,WeatherDisplay:10.37,2013-01-05 00:10:00,
2013-01-04 19:13:00,41.2,18.1,30.40,NNW,327,8.0,11.5,39,0.00,CLR,OVC,0.00,0.0,WeatherDisplay:10.37,2013-01-05 00:13:00,
2013-01-04 19:16:00,41.1,18.6,30.40,NW,315,7.4,10.4,40,0.00,CLR,OVC,0.00,0.0,WeatherDisplay:10.37,2013-01-05 00:16:00,
2013-01-04 19:17:00,41.1,18.0,30.40,NNW,340,7.1,10.4,39,0.00,CLR,OVC,0.00,0.0,WeatherDisplay:10.37,2013-01-05 00:17:00,
2013-01-04 19:18:00,40.9,18.4,30.42,NNW,336,9.4,12.7,40,0.00,CLR,OVC,0.00,0.0,WeatherDisplay:10.37,2013-01-05 00:18:00,
2013-01-04 19:22:00,40.8,18.3,30.42,NNW,333,5.9,9.2,40,0.00,CLR,OVC,0.00,0.0,WeatherDisplay:10.37,2013-01-05 00:22:00,
2013-01-04 19:24:00,40.6,18.1,30.42,NW,311,11.1,12.7,40,0.00,CLR,OVC,0.00,0.0,WeatherDisplay:10.37,2013-01-05 00:24:00,
2013-01-04 19:25:00,40.5,18.0,30.42,NW,319,10.2,13.8,40,0.00,CLR,OVC,0.00,0.0,WeatherDisplay:10.37,2013-01-05 00:25:00,
2013-01-04 19:28:00,40.3,18.4,30.42,NW,318,6.6,11.5,41,0.00,CLR,OVC,0.00,0.0,WeatherDisplay:10.37,2013-01-05 00:28:00,
2013-01-04 19:29:00,40.2,18.3,30.42,NW,311,10.3,12.7,41,0.00,CLR,OVC,0.00,0.0,WeatherDisplay:10.37,2013-01-05 00:29:00,
2013-01-04 19:30:00,40.2,18.3,30.42,NW,311,9.1,12.7,41,0.00,CLR,OVC,0.00,0.0,WeatherDisplay:10.37,2013-01-05 00:30:00,
2013-01-04 19:32:00,40.2,18.3,30.42,NW,309,10.4,15.0,41,0.00,CLR,OVC,0.00,0.0,WeatherDisplay:10.37,2013-01-05 00:32:00,
2013-01-04 19:33:00,40.2,18.3,30.43,NW,304,7.5,11.5,41,0.00,CLR,OVC,0.00,0.0,WeatherDisplay:10.37,2013-01-05 00:33:00,
2013-01-04 19:35:00,40.1,18.3,30.43,NW,309,5.9,9.0,41,0.00,CLR,OVC,0.00,0.0,WeatherDisplay:10.37,2013-01-05 00:35:00,
2013-01-04 19:36:00,40.1,18.3,30.43,NW,311,6.5,9.2,41,0.00,CLR,OVC,0.00,0.0,WeatherDisplay:10.37,2013-01-05 00:36:00,
2013-01-04 19:38:00,40.1,18.3,30.43,NW,317,3.3,6.9,41,0.00,CLR,OVC,0.00,0.0,WeatherDisplay:10.37,2013-01-05 00:38:00,
2013-01-04 19:40:00,40.1,18.3,30.43,NW,317,3.2,4.6,41,0.00,CLR,OVC,0.00,0.0,WeatherDisplay:10.37,2013-01-05 00:40:00,
2013-01-04 19:41:00,40.1,18.3,30.43,NW,319,3.1,4.6,41,0.00,CLR,OVC,0.00,0.0,WeatherDisplay:10.37,2013-01-05 00:41:00,
2013-01-04 19:43:00,40.1,17.7,30.43,NW,320,4.8,5.0,40,0.00,CLR,OVC,0.00,0.0,WeatherDisplay:10.37,2013-01-05 00:43:00,
2013-01-04 19:47:00,39.9,18.1,30.43,NW,319,4.0,5.8,41,0.00,CLR,OVC,0.00,0.0,WeatherDisplay:10.37,2013-01-05 00:47:00,
2013-01-04 19:48:00,39.8,18.0,30.41,NW,320,3.6,4.6,41,0.00,CLR,OVC,0.00,0.0,WeatherDisplay:10.37,2013-01-05 00:48:00,
2013-01-04 19:50:00,39.8,18.0,30.41,NW,320,4.7,7.0,41,0.00,CLR,OVC,0.00,0.0,WeatherDisplay:10.37,2013-01-05 00:50:00,
2013-01-04 19:52:00,39.8,18.0,30.41,NW,319,5.3,7.0,41,0.00,CLR,OVC,0.00,0.0,WeatherDisplay:10.37,2013-01-05 00:52:00,
2013-01-04 19:54:00,39.6,17.8,30.41,NW,321,4.5,6.9,41,0.00,CLR,OVC,0.00,0.0,WeatherDisplay:10.37,2013-01-05 00:54:00,
2013-01-04 19:55:00,39.6,17.8,30.41,NW,321,4.7,6.9,41,0.00,CLR,OVC,0.00,0.0,WeatherDisplay:10.37,2013-01-05 00:55:00,
2013-01-04 19:59:00,39.5,17.7,30.41,NW,321,3.8,5.0,41,0.00,CLR,OVC,0.00,0.0,WeatherDisplay:10.37,2013-01-05 00:59:00,
2013-01-04 20:00:00,39.5,17.7,30.41,NW,321,5.0,6.0,41,0.00,CLR,OVC,0.00,0.0,WeatherDisplay:10.37,2013-01-05 01:00:00,
2013-01-04 20:01:00,39.5,17.7,30.41,NW,319,5.4,5.8,41,0.00,CLR,OVC,0.00,0.0,WeatherDisplay:10.37,2013-01-05 01:01:00,
2013-01-04 20:05:00,39.3,18.1,30.42,NW,318,4.4,5.8,42,0.00,CLR,OVC,0.00,0.0,WeatherDisplay:10.37,2013-01-05 01:05:00,
2013-01-04 20:06:00,39.3,18.1,30.42,NW,318,3.3,4.0,42,0.00,CLR,OVC,0.00,0.0,WeatherDisplay:10.37,2013-01-05 01:06:00,
2013-01-04 20:10:00,39.2,18.0,30.42,NW,321,5.8,7.0,42,0.00,CLR,OVC,0.00,0.0,WeatherDisplay:10.37,2013-01-05 01:10:00,
2013-01-04 20:11:00,39.2,18.0,30.42,NW,321,4.6,5.8,42,0.00,CLR,OVC,0.00,0.0,WeatherDisplay:10.37,2013-01-05 01:11:00,
2013-01-04 20:14:00,39.2,18.0,30.42,NW,321,3.9,5.0,42,0.00,CLR,OVC,0.00,0.0,WeatherDisplay:10.37,2013-01-05 01:14:00,
2013-01-04 20:15:00,39.1,17.9,30.42,NW,321,4.2,6.0,42,0.00,CLR,OVC,0.00,0.0,WeatherDisplay:10.37,2013-01-05 01:15:00,
2013-01-04 20:16:00,39.1,17.9,30.42,WNW,286,5.8,6.9,42,0.00,CLR,OVC,0.00,0.0,WeatherDisplay:10.37,2013-01-05 01:16:00,
2013-01-04 20:20:00,39.1,17.9,30.42,WNW,288,4.4,5.8,42,0.00,CLR,OVC,0.00,0.0,WeatherDisplay:10.37,2013-01-05 01:20:00,
2013-01-04 20:22:00,38.9,17.7,30.42,WNW,287,3.2,4.6,42,0.00,CLR,OVC,0.00,0.0,WeatherDisplay:10.37,2013-01-05 01:22:00,
2013-01-04 20:24:00,38.8,18.2,30.42,WNW,288,4.7,5.8,43,0.00,CLR,OVC,0.00,0.0,WeatherDisplay:10.37,2013-01-05 01:24:00,
2013-01-04 20:26:00,38.6,18.0,30.42,WNW,300,7.3,10.4,43,0.00,CLR,OVC,0.00,0.0,WeatherDisplay:10.37,2013-01-05 01:26:00,
2013-01-04 20:27:00,38.5,17.9,30.42,NW,312,6.5,11.5,43,0.00,CLR,OVC,0.00,0.0,WeatherDisplay:10.37,2013-01-05 01:27:00,
2013-01-04 20:28:00,38.5,17.9,30.42,NW,311,5.6,9.2,43,0.00,CLR,OVC,0.00,0.0,WeatherDisplay:10.37,2013-01-05 01:28:00,
2013-01-04 20:30:00,38.5,17.9,30.42,NW,323,6.3,10.4,43,0.00,CLR,OVC,0.00,0.0,WeatherDisplay:10.37,2013-01-05 01:30:00,
2013-01-04 20:33:00,38.5,17.9,30.42,NNW,341,6.8,9.2,43,0.00,CLR,OVC,0.00,0.0,WeatherDisplay:10.37,2013-01-05 01:33:00,
2013-01-04 20:35:00,38.5,17.9,30.42,NNW,330,6.1,9.2,43,0.00,CLR,OVC,0.00,0.0,WeatherDisplay:10.37,2013-01-05 01:35:00,
2013-01-04 20:36:00,38.5,17.9,30.42,NNW,330,4.4,5.8,43,0.00,CLR,OVC,0.00,0.0,WeatherDisplay:10.37,2013-01-05 01:36:00,
2013-01-04 20:37:00,38.3,17.7,30.42,NNW,329,4.4,6.0,43,0.00,CLR,OVC,0.00,0.0,WeatherDisplay:10.37,2013-01-05 01:37:00,
2013-01-04 20:38:00,38.3,17.7,30.42,NW,326,4.6,5.8,43,0.00,CLR,OVC,0.00,0.0,WeatherDisplay:10.37,2013-01-05 01:38:00,
2013-01-04 20:40:00,38.3,18.3,30.42,NW,326,3.1,3.5,44,0.00,CLR,OVC,0.00,0.0,WeatherDisplay:10.37,2013-01-05 01:40:00,
2013-01-04 20:42:00,38.2,17.6,30.42,NW,326,0.0,0.0,43,0.00,CLR,OVC,0.00,0.0,WeatherDisplay:10.37,2013-01-05 01:42:00,
2013-01-04 20:43:00,38.2,17.6,30.42,NW,326,3.3,4.6,43,0.00,CLR,OVC,0.00,0.0,WeatherDisplay:10.37,2013-01-05 01:43:00,
2013-01-04 20:44:00,38.2,17.6,30.42,NW,326,5.0,5.8,43,0.00,CLR,OVC,0.00,0.0,WeatherDisplay:10.37,2013-01-05 01:44:00,
2013-01-04 20:45:00,38.2,18.2,30.42,NW,326,1.5,3.5,44,0.00,CLR,OVC,0.00,0.0,WeatherDisplay:10.37,2013-01-05 01:45:00,
2013-01-04 20:49:00,38.2,18.2,30.42,NW,325,1.9,4.6,44,0.00,CLR,OVC,0.00,0.0,WeatherDisplay:10.37,2013-01-05 01:49:00,
2013-01-04 20:50:00,38.0,18.0,30.42,NNW,329,3.9,5.0,44,0.00,CLR,OVC,0.00,0.0,WeatherDisplay:10.37,2013-01-05 01:50:00,
2013-01-04 20:55:00,37.5,18.6,30.42,NNW,346,6.0,11.5,46,0.00,CLR,OVC,0.00,0.0,WeatherDisplay:10.37,2013-01-05 01:55:00,
2013-01-04 20:56:00,37.5,18.6,30.42,North,350,9.0,13.8,46,0.00,CLR,OVC,0.00,0.0,WeatherDisplay:10.37,2013-01-05 01:56:00,
2013-01-04 20:58:00,37.5,18.6,30.42,NNW,335,8.1,11.5,46,0.00,CLR,OVC,0.00,0.0,WeatherDisplay:10.37,2013-01-05 01:58:00,
2013-01-04 21:01:00,37.6,18.2,30.42,NNW,347,10.3,12.7,45,0.00,CLR,OVC,0.00,0.0,WeatherDisplay:10.37,2013-01-05 02:01:00,
2013-01-04 21:02:00,37.6,18.7,30.42,NNW,347,11.0,15.0,46,0.00,CLR,OVC,0.00,0.0,WeatherDisplay:10.37,2013-01-05 02:02:00,
2013-01-04 21:03:00,37.8,18.3,30.42,NNW,337,9.6,12.7,45,0.00,CLR,OVC,0.00,0.0,WeatherDisplay:10.37,2013-01-05 02:03:00,
2013-01-04 21:06:00,37.8,18.3,30.42,North,351,8.1,11.5,45,0.00,CLR,OVC,0.00,0.0,WeatherDisplay:10.37,2013-01-05 02:06:00,
2013-01-04 21:07:00,37.8,18.3,30.42,NNW,336,10.0,13.0,45,0.00,CLR,OVC,0.00,0.0,WeatherDisplay:10.37,2013-01-05 02:07:00,
2013-01-04 21:09:00,37.8,18.3,30.42,NW,326,10.6,13.8,45,0.00,CLR,OVC,0.00,0.0,WeatherDisplay:10.37,2013-01-05 02:09:00,
2013-01-04 21:10:00,37.8,18.3,30.42,NW,311,8.6,15.0,45,0.00,CLR,OVC,0.00,0.0,WeatherDisplay:10.37,2013-01-05 02:10:00,
2013-01-04 21:12:00,37.8,18.3,30.42,NW,326,8.7,11.5,45,0.00,CLR,OVC,0.00,0.0,WeatherDisplay:10.37,2013-01-05 02:12:00,
2013-01-04 21:14:00,37.8,18.3,30.42,NW,324,8.8,12.7,45,0.00,CLR,OVC,0.00,0.0,WeatherDisplay:10.37,2013-01-05 02:14:00,
2013-01-04 21:16:00,37.8,18.8,30.42,NNW,343,6.8,11.5,46,0.00,CLR,OVC,0.00,0.0,WeatherDisplay:10.37,2013-01-05 02:16:00,
2013-01-04 21:18:00,37.6,18.7,30.44,NNW,346,5.6,12.7,46,0.00,CLR,OVC,0.00,0.0,WeatherDisplay:10.37,2013-01-05 02:18:00,
2013-01-04 21:19:00,37.5,18.6,30.44,NNW,341,8.0,11.5,46,0.00,CLR,OVC,0.00,0.0,WeatherDisplay:10.37,2013-01-05 02:19:00,
2013-01-04 21:21:00,37.5,18.6,30.44,NNW,329,7.9,11.5,46,0.00,CLR,OVC,0.00,0.0,WeatherDisplay:10.37,2013-01-05 02:21:00,
2013-01-04 21:22:00,37.5,18.6,30.44,NNW,331,6.0,10.4,46,0.00,CLR,OVC,0.00,0.0,WeatherDisplay:10.37,2013-01-05 02:22:00,
2013-01-04 21:23:00,37.5,18.6,30.44,NNW,341,9.4,11.5,46,0.00,CLR,OVC,0.00,0.0,WeatherDisplay:10.37,2013-01-05 02:23:00,
2013-01-04 21:24:00,37.5,18.6,30.44,NNW,333,7.0,11.5,46,0.00,CLR,OVC,0.00,0.0,WeatherDisplay:10.37,2013-01-05 02:24:00,
2013-01-04 21:27:00,37.3,18.4,30.44,NW,325,7.1,11.5,46,0.00,CLR,OVC,0.00,0.0,WeatherDisplay:10.37,2013-01-05 02:27:00,
2013-01-04 21:30:00,37.3,18.4,30.44,NW,316,9.7,12.7,46,0.00,CLR,OVC,0.00,0.0,WeatherDisplay:10.37,2013-01-05 02:30:00,
2013-01-04 21:33:00,37.2,18.8,30.44,NNW,340,6.1,8.1,47,0.00,CLR,OVC,0.00,0.0,WeatherDisplay:10.37,2013-01-05 02:33:00,
2013-01-04 21:34:00,37.0,19.1,30.44,North,360,6.3,10.4,48,0.00,CLR,OVC,0.00,0.0,WeatherDisplay:10.37,2013-01-05 02:34:00,
2013-01-04 21:35:00,37.0,19.1,30.44,NNW,348,7.6,12.0,48,0.00,CLR,OVC,0.00,0.0,WeatherDisplay:10.37,2013-01-05 02:35:00,
2013-01-04 21:39:00,36.9,19.0,30.44,NW,321,7.0,11.5,48,0.00,CLR,OVC,0.00,0.0,WeatherDisplay:10.37,2013-01-05 02:39:00,
2013-01-04 21:40:00,36.9,19.0,30.44,NNW,348,6.7,11.5,48,0.00,CLR,OVC,0.00,0.0,WeatherDisplay:10.37,2013-01-05 02:40:00,
2013-01-04 21:41:00,36.9,19.5,30.44,NW,325,6.4,12.7,49,0.00,CLR,OVC,0.00,0.0,WeatherDisplay:10.37,2013-01-05 02:41:00,
2013-01-04 21:45:00,36.8,19.4,30.44,NNW,336,4.6,10.4,49,0.00,CLR,OVC,0.00,0.0,WeatherDisplay:10.37,2013-01-05 02:45:00,
2013-01-04 21:46:00,36.8,19.4,30.44,NNW,331,7.3,11.0,49,0.00,CLR,OVC,0.00,0.0,WeatherDisplay:10.37,2013-01-05 02:46:00,
2013-01-04 21:47:00,36.8,19.4,30.44,North,351,6.7,11.5,49,0.00,CLR,OVC,0.00,0.0,WeatherDisplay:10.37,2013-01-05 02:47:00,
2013-01-04 21:49:00,36.8,19.4,30.43,NNW,347,6.8,9.2,49,0.00,CLR,OVC,0.00,0.0,WeatherDisplay:10.37,2013-01-05 02:49:00,
2013-01-04 21:51:00,36.6,19.2,30.43,NNW,338,6.8,11.5,49,0.00,CLR,OVC,0.00,0.0,WeatherDisplay:10.37,2013-01-05 02:51:00,
2013-01-04 21:52:00,36.6,19.2,30.43,NW,323,8.8,11.5,49,0.00,CLR,OVC,0.00,0.0,WeatherDisplay:10.37,2013-01-05 02:52:00,
2013-01-04 21:54:00,36.6,19.7,30.43,NW,323,5.8,7.0,50,0.00,CLR,OVC,0.00,0.0,WeatherDisplay:10.37,2013-01-05 02:54:00,
2013-01-04 21:56:00,36.5,19.6,30.43,NNW,337,5.8,7.0,50,0.00,CLR,OVC,0.00,0.0,WeatherDisplay:10.37,2013-01-05 02:56:00,
2013-01-04 21:57:00,36.5,19.6,30.43,NW,320,6.8,10.4,50,0.00,CLR,OVC,0.00,0.0,WeatherDisplay:10.37,2013-01-05 02:57:00,
2013-01-04 21:59:00,36.3,19.4,30.43,NNW,346,5.9,11.0,50,0.00,CLR,OVC,0.00,0.0,WeatherDisplay:10.37,2013-01-05 02:59:00,
2013-01-04 22:01:00,36.3,19.4,30.43,NNW,348,4.4,10.4,50,0.00,CLR,OVC,0.00,0.0,WeatherDisplay:10.37,2013-01-05 03:01:00,
2013-01-04 22:05:00,36.3,19.4,30.44,NNW,340,4.0,6.9,50,0.00,CLR,OVC,0.00,0.0,WeatherDisplay:10.37,2013-01-05 03:05:00,
2013-01-04 22:07:00,36.3,19.4,30.44,NNW,340,0.0,4.6,50,0.00,CLR,OVC,0.00,0.0,WeatherDisplay:10.37,2013-01-05 03:07:00,
2013-01-04 22:10:00,36.2,19.8,30.44,NNW,340,2.2,4.6,51,0.00,CLR,OVC,0.00,0.0,WeatherDisplay:10.37,2013-01-05 03:10:00,
2013-01-04 22:11:00,36.2,19.3,30.44,NNW,340,0.3,2.3,50,0.00,CLR,OVC,0.00,0.0,WeatherDisplay:10.37,2013-01-05 03:11:00,
2013-01-04 22:14:00,36.0,19.6,30.44,NNW,340,3.0,4.0,51,0.00,CLR,OVC,0.00,0.0,WeatherDisplay:10.37,2013-01-05 03:14:00,
2013-01-04 22:17:00,36.0,19.6,30.44,NNW,340,0.0,3.5,51,0.00,CLR,OVC,0.00,0.0,WeatherDisplay:10.37,2013-01-05 03:17:00,
2013-01-04 22:19:00,35.9,19.5,30.43,NNW,340,2.6,4.6,51,0.00,CLR,OVC,0.00,0.0,WeatherDisplay:10.37,2013-01-05 03:19:00,
2013-01-04 22:21:00,35.9,19.5,30.43,NNW,340,0.3,3.5,51,0.00,CLR,OVC,0.00,0.0,WeatherDisplay:10.37,2013-01-05 03:21:00,
2013-01-04 22:22:00,35.8,19.4,30.43,NNW,340,0.0,0.0,51,0.00,CLR,OVC,0.00,0.0,WeatherDisplay:10.37,2013-01-05 03:22:00,
2013-01-04 22:24:00,35.8,19.4,30.43,NNW,340,0.0,0.0,51,0.00,CLR,OVC,0.00,0.0,WeatherDisplay:10.37,2013-01-05 03:24:00,
2013-01-04 22:27:00,35.6,19.7,30.43,NNW,340,0.0,0.0,52,0.00,CLR,OVC,0.00,0.0,WeatherDisplay:10.37,2013-01-05 03:27:00,
2013-01-04 22:28:00,35.6,19.7,30.43,NNW,340,0.0,0.0,52,0.00,CLR,OVC,0.00,0.0,WeatherDisplay:10.37,2013-01-05 03:28:00,
2013-01-04 22:29:00,35.6,19.7,30.43,NNW,340,0.0,0.0,52,0.00,CLR,OVC,0.00,0.0,WeatherDisplay:10.37,2013-01-05 03:29:00,
2013-01-04 22:31:00,35.5,19.6,30.43,NNW,340,0.0,0.0,52,0.00,CLR,OVC,0.00,0.0,WeatherDisplay:10.37,2013-01-05 03:31:00,
2013-01-04 22:32:00,35.5,19.6,30.43,NNW,340,3.7,5.8,52,0.00,CLR,OVC,0.00,0.0,WeatherDisplay:10.37,2013-01-05 03:32:00,
2013-01-04 22:33:00,35.3,19.4,30.43,NNW,340,3.4,4.6,52,0.00,CLR,OVC,0.00,0.0,WeatherDisplay:10.37,2013-01-05 03:33:00,
2013-01-04 22:34:00,35.3,19.4,30.43,NNW,339,3.7,5.8,52,0.00,,OVC,0.00,0.0,WeatherDisplay:10.37,2013-01-05 03:34:00,
2013-01-04 22:37:00,35.2,19.3,30.43,NNW,339,1.0,3.5,52,0.00,,OVC,0.00,0.0,WeatherDisplay:10.37,2013-01-05 03:37:00,
2013-01-04 22:40:00,35.0,19.6,30.43,NNW,339,0.4,3.5,53,0.00,,OVC,0.00,0.0,WeatherDisplay:10.37,2013-01-05 03:40:00,
2013-01-04 22:41:00,35.0,19.6,30.43,NNW,339,2.3,4.0,53,0.00,,OVC,0.00,0.0,WeatherDisplay:10.37,2013-01-05 03:41:00,
2013-01-04 22:46:00,35.2,19.3,30.43,NNW,339,3.1,4.6,52,0.00,,OVC,0.00,0.0,WeatherDisplay:10.37,2013-01-05 03:46:00,
2013-01-04 22:47:00,35.3,19.4,30.43,NNW,339,3.7,5.0,52,0.00,,OVC,0.00,0.0,WeatherDisplay:10.37,2013-01-05 03:47:00,
2013-01-04 22:51:00,35.3,19.4,30.43,NNW,327,3.8,4.6,52,0.00,,OVC,0.00,0.0,WeatherDisplay:10.37,2013-01-05 03:51:00,
2013-01-04 22:52:00,35.3,19.4,30.43,NNW,327,2.9,3.5,52,0.00,,OVC,0.00,0.0,WeatherDisplay:10.37,2013-01-05 03:52:00,
2013-01-04 22:53:00,35.0,19.6,30.43,NNW,327,2.8,3.5,53,0.00,,OVC,0.00,0.0,WeatherDisplay:10.37,2013-01-05 03:53:00,
2013-01-04 22:56:00,34.9,19.5,30.43,NNW,327,3.0,4.0,53,0.00,,OVC,0.00,0.0,WeatherDisplay:10.37,2013-01-05 03:56:00,
2013-01-04 22:58:00,34.7,19.7,30.43,NNW,327,3.3,3.5,54,0.00,,OVC,0.00,0.0,WeatherDisplay:10.37,2013-01-05 03:58:00,
2013-01-04 22:59:00,34.7,19.7,30.43,NNW,327,3.4,4.0,54,0.00,,OVC,0.00,0.0,WeatherDisplay:10.37,2013-01-05 03:59:00,
2013-01-04 23:01:00,34.7,19.7,30.43,NNW,327,3.9,4.0,54,0.00,,OVC,0.00,0.0,WeatherDisplay:10.37,2013-01-05 04:01:00,
2013-01-04 23:03:00,34.6,19.6,30.44,NNW,327,5.0,5.0,54,0.00,,OVC,0.00,0.0,WeatherDisplay:10.37,2013-01-05 04:03:00,
2013-01-04 23:04:00,34.4,19.5,30.44,NW,321,5.1,6.0,54,0.00,,OVC,0.00,0.0,WeatherDisplay:10.37,2013-01-05 04:04:00,
2013-01-04 23:06:00,34.3,19.4,30.44,NW,313,3.8,5.8,54,0.00,,OVC,0.00,0.0,WeatherDisplay:10.37,2013-01-05 04:06:00,
2013-01-04 23:10:00,33.8,19.3,30.44,NW,313,4.0,5.0,55,0.00,,OVC,0.00,0.0,WeatherDisplay:10.37,2013-01-05 04:10:00,
2013-01-04 23:11:00,33.8,19.3,30.44,NW,313,4.7,5.8,55,0.00,,OVC,0.00,0.0,WeatherDisplay:10.37,2013-01-05 04:11:00,
2013-01-04 23:13:00,33.8,19.3,30.44,NW,313,4.9,5.8,55,0.00,,OVC,0.00,0.0,WeatherDisplay:10.37,2013-01-05 04:13:00,
2013-01-04 23:16:00,34.1,19.2,30.44,NW,313,3.9,5.0,54,0.00,,OVC,0.00,0.0,WeatherDisplay:10.37,2013-01-05 04:16:00,
2013-01-04 23:18:00,34.3,19.4,30.42,NW,311,5.7,9.2,54,0.00,,OVC,0.00,0.0,WeatherDisplay:10.37,2013-01-05 04:18:00,
2013-01-04 23:19:00,34.3,19.4,30.42,NW,311,5.2,5.8,54,0.00,,OVC,0.00,0.0,WeatherDisplay:10.37,2013-01-05 04:19:00,
2013-01-04 23:21:00,34.3,19.4,30.42,NW,311,5.0,6.0,54,0.00,,OVC,0.00,0.0,WeatherDisplay:10.37,2013-01-05 04:21:00,
2013-01-04 23:22:00,34.1,19.2,30.42,NW,311,5.3,6.0,54,0.00,,OVC,0.00,0.0,WeatherDisplay:10.37,2013-01-05 04:22:00,
2013-01-04 23:25:00,33.8,19.3,30.42,NW,310,5.4,8.1,55,0.00,,OVC,0.00,0.0,WeatherDisplay:10.37,2013-01-05 04:25:00,
2013-01-04 23:27:00,33.4,19.8,30.42,NW,310,5.2,6.9,57,0.00,,OVC,0.00,0.0,WeatherDisplay:10.37,2013-01-05 04:27:00,
2013-01-04 23:28:00,33.2,19.6,30.42,NW,310,4.6,6.9,57,0.00,,OVC,0.00,0.0,WeatherDisplay:10.37,2013-01-05 04:28:00,
2013-01-04 23:31:00,33.2,19.6,30.42,NW,311,5.4,7.0,57,0.00,,OVC,0.00,0.0,WeatherDisplay:10.37,2013-01-05 04:31:00,
2013-01-04 23:32:00,33.2,19.6,30.42,NW,311,4.0,6.9,57,0.00,,OVC,0.00,0.0,WeatherDisplay:10.37,2013-01-05 04:32:00,
2013-01-04 23:33:00,33.2,19.6,30.43,NW,311,4.4,5.8,57,0.00,,OVC,0.00,0.0,WeatherDisplay:10.37,2013-01-05 04:33:00,
2013-01-04 23:36:00,33.5,19.5,30.43,NW,310,2.4,4.6,56,0.00,CLR,OVC,0.00,0.0,WeatherDisplay:10.37,2013-01-05 04:36:00,
2013-01-04 23:38:00,33.1,19.5,30.43,NW,309,1.8,3.0,57,0.00,CLR,OVC,0.00,0.0,WeatherDisplay:10.37,2013-01-05 04:38:00,
2013-01-04 23:39:00,33.1,19.5,30.43,NW,309,3.1,3.5,57,0.00,CLR,OVC,0.00,0.0,WeatherDisplay:10.37,2013-01-05 04:39:00,
2013-01-04 23:41:00,32.9,19.3,30.43,NW,309,0.3,3.5,57,0.00,CLR,OVC,0.00,0.0,WeatherDisplay:10.37,2013-01-05 04:41:00,
2013-01-04 23:44:00,32.9,19.7,30.43,WNW,301,4.7,7.0,58,0.00,CLR,OVC,0.00,0.0,WeatherDisplay:10.37,2013-01-05 04:44:00,
2013-01-04 23:45:00,32.9,19.7,30.43,NW,306,5.0,7.0,58,0.00,CLR,OVC,0.00,0.0,WeatherDisplay:10.37,2013-01-05 04:45:00,
2013-01-04 23:47:00,33.1,19.5,30.43,WNW,291,6.8,9.2,57,0.00,CLR,OVC,0.00,0.0,WeatherDisplay:10.37,2013-01-05 04:47:00,
2013-01-04 23:49:00,33.2,19.6,30.42,WNW,288,6.5,8.1,57,0.00,CLR,OVC,0.00,0.0,WeatherDisplay:10.37,2013-01-05 04:49:00,
2013-01-04 23:51:00,33.4,19.4,30.42,WNW,287,4.8,6.9,56,0.00,CLR,OVC,0.00,0.0,WeatherDisplay:10.37,2013-01-05 04:51:00,
2013-01-04 23:52:00,33.4,19.4,30.42,WNW,287,3.0,4.6,56,0.00,CLR,OVC,0.00,0.0,WeatherDisplay:10.37,2013-01-05 04:52:00,
2013-01-04 23:55:00,33.1,19.5,30.42,WNW,287,0.0,0.0,57,0.00,CLR,OVC,0.00,0.0,WeatherDisplay:10.37,2013-01-05 04:55:00,
2013-01-04 23:56:00,32.9,19.7,30.42,WNW,287,0.0,0.0,58,0.00,CLR,OVC,0.00,0.0,WeatherDisplay:10.37,2013-01-05 04:56:00,
2013-01-04 23:57:00,32.7,19.5,30.42,WNW,287,0.0,0.0,58,0.00,CLR,OVC,0.00,0.0,WeatherDisplay:10.37,2013-01-05 04:57:00,